CW5316 Weather Reports


Display with metric or nautical units.
time (UTC)temp
F
wind
direction
speed
MPH
gust
MPH
rain 1hr
in
rain 24hr
in
rain mn
in
humidity
%
barometer
mb
20200120025132 46 202 3.0 7.0 0.00 0.29 0.19 68 1017.2
20200120025032 46 339 3.0 12.0 0.00 0.29 0.19 69 1017.4
20200120024932 46 351 2.0 13.0 0.00 0.29 0.19 69 1017.3
20200120024834 46 117 2.0 13.0 0.00 0.29 0.19 70 1017.3
20200120024733 46 117 2.0 13.0 0.00 0.29 0.19 70 1017.4
20200120024632 46 192 2.0 13.0 0.00 0.29 0.19 70 1017.3
20200120024532 46 227 1.0 13.0 0.00 0.29 0.19 70 1017.2
20200120024433 46 120 2.0 13.0 0.00 0.29 0.19 70 1017.4
20200120024333 46 231 2.0 13.0 0.00 0.30 0.19 70 1017.6
20200120024231 46 118 2.0 13.0 0.00 0.30 0.19 70 1017.3
20200120024132 45 118 3.0 13.0 0.00 0.30 0.19 70 1017.3
20200120024032 45 186 1.0 13.0 0.00 0.30 0.19 71 1017.0
20200120023933 45 240 1.0 11.0 0.00 0.30 0.19 71 1017.5
20200120023834 45 240 1.0 11.0 0.00 0.30 0.19 70 1017.4
20200120023736 45 220 1.0 11.0 0.00 0.30 0.19 70 1017.3
20200120023632 46 222 3.0 11.0 0.00 0.30 0.19 70 1017.3
20200120023532 46 240 3.0 11.0 0.00 0.30 0.19 70 1017.2
20200120023432 45 257 2.0 6.0 0.00 0.30 0.19 70 1017.2
20200120023333 46 213 1.0 6.0 0.00 0.30 0.19 70 1017.3
20200120023233 46 291 0.0 6.0 0.00 0.30 0.19 70 1017.4
20200120023132 46 293 0.0 6.0 0.00 0.30 0.19 70 1017.4
20200120023032 46 269 1.0 6.0 0.00 0.30 0.19 70 1017.3
20200120022932 46 271 2.0 6.0 0.00 0.30 0.19 70 1017.3
20200120022834 46 233 3.0 6.0 0.00 0.30 0.19 70 1017.2
20200120022731 46 223 2.0 13.0 0.00 0.30 0.19 70 1017.2
20200120022631 46 223 1.0 13.0 0.00 0.30 0.19 69 1017.3
20200120022533 46 292 1.0 13.0 0.00 0.30 0.19 69 1017.4
20200120022431 46 288 1.0 13.0 0.00 0.30 0.19 68 1017.3
20200120022333 47 141 1.0 13.0 0.00 0.30 0.19 68 1017.4
20200120022232 47 141 1.0 13.0 0.00 0.30 0.19 67 1017.3
20200120022133 47 212 1.0 13.0 0.00 0.30 0.19 67 1017.2
20200120022032 47 258 0.0 13.0 0.00 0.30 0.19 68 1017.2
20200120021932 46 120 3.0 13.0 0.00 0.30 0.19 68 1017.3
20200120021833 46 120 3.0 17.0 0.00 0.31 0.19 68 1017.3
20200120021732 46 120 2.0 17.0 0.00 0.31 0.19 68 1017.4
20200120021632 46 141 2.0 17.0 0.00 0.31 0.19 69 1017.3
20200120021532 46 233 1.0 17.0 0.00 0.31 0.19 69 1017.5
20200120021431 46 319 1.0 17.0 0.00 0.31 0.19 69 1017.5
20200120021333 46 319 1.0 17.0 0.00 0.31 0.19 69 1017.5
20200120021232 47 248 1.0 17.0 0.00 0.31 0.19 68 1017.6
20200120021132 46 157 1.0 17.0 0.00 0.31 0.19 68 1017.5
20200120021032 46 155 4.0 17.0 0.00 0.31 0.19 68 1017.5
20200120020930 46 104 6.0 17.0 0.00 0.31 0.19 69 1017.5
20200120020833 46 275 1.0 7.0 0.00 0.31 0.19 69 1017.5
20200120020731 47 275 1.0 7.0 0.00 0.31 0.19 69 1017.4
20200120020632 47 275 1.0 7.0 0.00 0.31 0.19 69 1017.4
20200120020532 47 241 2.0 7.0 0.00 0.31 0.19 69 1017.7
20200120020432 47 141 2.0 7.0 0.00 0.31 0.19 68 1017.7
20200120020333 47 245 2.0 10.0 0.00 0.31 0.19 68 1017.5
20200120020231 47 220 2.0 10.0 0.00 0.31 0.19 67 1017.6
20200120020131 47 299 2.0 10.0 0.00 0.31 0.19 68 1017.6
20200120020032 47 217 2.0 10.0 0.00 0.31 0.19 67 1017.6
20200120015931 47 240 2.0 10.0 0.00 0.31 0.19 67 1017.5
20200120015832 47 262 1.0 10.0 0.00 0.31 0.19 67 1017.7
20200120015732 47 123 2.0 10.0 0.00 0.31 0.19 67 1017.5
20200120015632 47 254 4.0 10.0 0.00 0.31 0.19 67 1017.5
20200120015531 47 303 4.0 10.0 0.00 0.31 0.19 68 1017.6
20200120015431 47 81 4.0 10.0 0.00 0.31 0.19 68 1018.0
20200120015333 47 133 3.0 10.0 0.00 0.31 0.19 68 1018.0
20200120015233 47 120 2.0 6.0 0.00 0.31 0.19 68 1017.8
20200120015133 47 115 1.0 6.0 0.00 0.31 0.19 69 1017.8
20200120015032 47 120 1.0 5.0 0.00 0.31 0.19 69 1017.8
20200120014932 47 237 1.0 5.0 0.00 0.31 0.19 69 1017.8
20200120014833 47 157 1.0 5.0 0.00 0.31 0.19 69 1017.8
20200120014732 47 152 2.0 7.0 0.00 0.31 0.19 69 1017.8
20200120014632 47 261 1.0 11.0 0.00 0.31 0.19 69 1017.9
20200120014530 47 237 1.0 14.0 0.00 0.31 0.19 69 1017.7
20200120014431 47 222 1.0 14.0 0.00 0.31 0.19 69 1017.8
20200120014332 47 244 1.0 14.0 0.00 0.31 0.19 69 1017.9
20200120014231 47 264 1.0 14.0 0.00 0.31 0.19 69 1017.7
20200120014130 47 248 1.0 14.0 0.00 0.31 0.19 68 1017.7
20200120014032 47 254 1.0 14.0 0.00 0.32 0.19 69 1017.7
20200120013931 47 131 2.0 14.0 0.00 0.32 0.19 69 1017.9
20200120013833 47 237 3.0 14.0 0.00 0.32 0.19 70 1018.0
20200120013731 46 188 4.0 14.0 0.00 0.32 0.19 70 1018.0
20200120013631 46 120 4.0 14.0 0.00 0.32 0.19 70 1018.1
20200120013530 46 103 2.0 9.0 0.00 0.32 0.19 70 1018.0
20200120013430 46 113 1.0 9.0 0.00 0.32 0.19 70 1018.1
20200120013332 46 244 0.0 9.0 0.00 0.32 0.19 70 1018.0
20200120013230 46 244 0.0 9.0 0.00 0.32 0.19 70 1017.8
20200120013131 47 120 1.0 9.0 0.00 0.32 0.19 70 1018.0
20200120013031 47 120 1.0 9.0 0.00 0.32 0.19 70 1018.1
20200120012931 46 11 1.0 9.0 0.00 0.32 0.19 70 1017.9
20200120012832 46 120 2.0 9.0 0.00 0.32 0.19 70 1018.0
20200120012730 46 144 4.0 9.0 0.00 0.32 0.19 70 1018.3
20200120012631 46 103 4.0 9.0 0.00 0.32 0.19 70 1018.3
20200120012530 46 81 4.0 7.0 0.00 0.32 0.19 70 1018.2
20200120012430 46 120 2.0 7.0 0.00 0.32 0.19 71 1018.1
20200120012332 46 98 1.0 5.0 0.00 0.32 0.19 71 1018.1
20200120012230 46 117 1.0 7.0 0.00 0.32 0.19 72 1018.3
20200120012131 45 120 1.0 7.0 0.00 0.32 0.19 72 1018.2
20200120012029 45 121 1.0 7.0 0.00 0.32 0.19 72 1018.2
20200120011932 45 140 2.0 7.0 0.00 0.32 0.19 73 1018.2
20200120011832 46 227 1.0 7.0 0.00 0.32 0.19 72 1018.3
20200120011730 46 229 0.0 7.0 0.00 0.32 0.19 72 1018.1
20200120011630 46 229 1.0 7.0 0.00 0.32 0.19 72 1018.1
20200120011530 46 203 1.0 7.0 0.00 0.32 0.19 72 1018.2
20200120011430 46 120 2.0 7.0 0.00 0.32 0.19 72 1018.1
20200120011331 46 174 1.0 7.0 0.00 0.32 0.19 72 1018.3
20200120011230 46 168 0.0 11.0 0.00 0.33 0.19 72 1018.3
20200120011130 46 227 0.0 11.0 0.00 0.33 0.19 72 1018.3
20200120011029 46 227 1.0 11.0 0.00 0.33 0.19 71 1018.3
20200120010929 46 227 1.0 11.0 0.00 0.33 0.19 71 1018.3
20200120010832 46 214 1.0 11.0 0.00 0.33 0.19 71 1018.3
20200120010730 46 308 2.0 11.0 0.00 0.33 0.19 71 1018.3
20200120010629 46 251 2.0 11.0 0.00 0.33 0.19 71 1018.2
20200120010530 46 226 2.0 11.0 0.00 0.33 0.19 71 1018.3
20200120010430 46 157 4.0 11.0 0.00 0.33 0.19 71 1018.3
20200120010332 46 167 3.0 11.0 0.00 0.33 0.19 71 1018.4
20200120010231 46 114 3.0 6.0 0.00 0.33 0.19 71 1018.5
20200120010129 46 241 3.0 11.0 0.00 0.33 0.19 71 1018.4
20200120010032 47 145 1.0 11.0 0.00 0.33 0.19 71 1018.4
20200120005929 47 183 0.0 11.0 0.00 0.33 0.19 70 1018.5
20200120005831 47 185 1.0 11.0 0.00 0.33 0.19 70 1018.4
20200120005730 47 193 1.0 11.0 0.00 0.33 0.19 70 1018.4
20200120005630 47 196 1.0 11.0 0.00 0.33 0.19 70 1018.5
20200120005529 47 244 1.0 11.0 0.00 0.33 0.19 70 1018.5
20200120005430 47 151 1.0 11.0 0.00 0.33 0.19 70 1018.6
20200120005331 47 144 2.0 11.0 0.00 0.33 0.19 70 1018.5
20200120005230 47 94 3.0 11.0 0.00 0.33 0.19 70 1018.7
20200120005131 47 152 2.0 10.0 0.00 0.33 0.19 70 1018.7
20200120005029 47 104 2.0 10.0 0.00 0.33 0.19 70 1018.7
20200120004929 47 113 2.0 11.0 0.00 0.33 0.19 70 1018.7
20200120004831 47 202 1.0 11.0 0.00 0.33 0.19 70 1018.7
20200120004730 47 141 1.0 11.0 0.00 0.33 0.19 70 1018.7
20200120004630 47 138 2.0 11.0 0.00 0.33 0.19 70 1018.8
20200120004530 47 110 2.0 11.0 0.00 0.33 0.19 70 1019.0
20200120004429 47 161 1.0 11.0 0.00 0.33 0.19 70 1019.0
20200120004330 47 161 2.0 11.0 0.00 0.33 0.19 70 1019.0
20200120004229 47 101 3.0 11.0 0.00 0.33 0.19 70 1018.9
20200120004129 47 188 3.0 11.0 0.00 0.33 0.19 70 1018.9
20200120004029 47 120 3.0 11.0 0.00 0.33 0.19 70 1019.1
20200120003929 47 107 2.0 9.0 0.00 0.34 0.19 71 1019.2
20200120003830 47 110 2.0 9.0 0.00 0.34 0.19 70 1019.2
20200120003729 47 167 1.0 9.0 0.00 0.34 0.19 71 1019.2
20200120003629 47 191 1.0 9.0 0.00 0.34 0.19 71 1019.4
20200120003529 47 120 2.0 9.0 0.00 0.34 0.19 70 1019.4
20200120003430 47 151 2.0 9.0 0.00 0.34 0.19 70 1019.4
20200120003330 47 162 1.0 7.0 0.00 0.34 0.19 70 1019.6
20200120003230 47 114 3.0 7.0 0.00 0.34 0.19 70 1019.6
20200120003131 47 107 3.0 9.0 0.00 0.34 0.19 71 1019.6
20200120003030 47 120 3.0 13.0 0.00 0.34 0.19 71 1019.6
20200120002929 47 168 2.0 13.0 0.00 0.34 0.19 71 1019.8
20200120002831 47 120 1.0 13.0 0.00 0.34 0.19 71 1019.6
20200120002728 47 130 1.0 13.0 0.00 0.34 0.19 71 1019.6
20200120002630 47 157 1.0 13.0 0.00 0.34 0.19 71 1019.6
20200120002530 47 185 1.0 13.0 0.00 0.34 0.19 70 1019.8
20200120002429 47 310 2.0 13.0 0.00 0.34 0.19 70 1019.8
20200120002330 47 309 4.0 13.0 0.00 0.34 0.19 70 1019.7
20200120002229 47 107 5.0 13.0 0.00 0.34 0.19 71 1020.1
20200120002130 47 108 6.0 13.0 0.00 0.34 0.19 71 1019.9
20200120002028 47 80 5.0 12.0 0.00 0.34 0.19 71 1019.9
20200120001929 47 89 1.0 10.0 0.00 0.35 0.19 71 1020.0
20200120001831 47 213 2.0 10.0 0.00 0.35 0.19 70 1019.8
20200120001730 47 234 2.0 10.0 0.00 0.35 0.19 71 1019.8
20200120001629 47 154 3.0 10.0 0.00 0.35 0.19 71 1020.0
20200120001529 47 140 2.0 10.0 0.00 0.35 0.19 71 1019.8
20200120001429 47 154 2.0 11.0 0.00 0.35 0.19 71 1019.9
20200120001331 47 161 2.0 11.0 0.00 0.35 0.19 71 1019.9
20200120001228 47 138 3.0 11.0 0.00 0.35 0.19 71 1019.9
20200120001129 47 111 3.0 11.0 0.00 0.35 0.19 73 1019.9
20200120001029 46 241 2.0 11.0 0.00 0.35 0.19 73 1019.9
20200120000928 46 118 2.0 11.0 0.00 0.35 0.19 73 1020.0
20200120000829 46 152 1.0 11.0 0.00 0.35 0.19 73 1020.1
20200120000731 46 143 1.0 11.0 0.00 0.35 0.19 73 1019.8
20200120000628 45 138 2.0 11.0 0.00 0.35 0.19 74 1020.0
20200120000529 45 136 2.0 11.0 0.00 0.35 0.19 74 1020.2
20200120000428 45 120 2.0 6.0 0.00 0.35 0.19 74 1020.1
20200120000330 45 144 2.0 6.0 0.00 0.35 0.19 74 1020.1
20200120000228 45 120 1.0 6.0 0.00 0.35 0.19 74 1019.9
20200120000129 45 234 1.0 6.0 0.00 0.35 0.19 74 1019.9
20200120000029 45 205 0.0 6.0 0.00 0.35 0.19 74 1020.1
20200119235928 45 155 1.0 6.0 0.00 0.35 0.19 74 1020.0
20200119235830 45 155 1.0 6.0 0.00 0.35 0.19 74 1020.1
20200119235729 45 74 0.0 5.0 0.00 0.35 0.19 74 1020.1
20200119235628 45 74 2.0 5.0 0.00 0.35 0.19 74 1020.1
20200119235528 45 275 2.0 6.0 0.00 0.35 0.19 74 1020.0
20200119235428 45 245 1.0 6.0 0.00 0.35 0.19 74 1020.1
20200119235332 45 245 1.0 6.0 0.00 0.35 0.19 74 1020.0
20200119235229 45 192 1.0 6.0 0.00 0.36 0.19 74 1020.0
20200119235128 45 196 1.0 6.0 0.00 0.36 0.19 74 1020.0
20200119235028 45 261 1.0 6.0 0.00 0.36 0.19 74 1020.1
20200119234928 45 267 0.0 6.0 0.00 0.36 0.19 74 1020.1
20200119234830 45 214 2.0 6.0 0.00 0.36 0.19 74 1020.0
20200119234729 46 222 2.0 6.0 0.00 0.36 0.19 74 1020.0
20200119234630 46 193 1.0 6.0 0.00 0.36 0.19 74 1020.0
20200119234528 46 248 0.0 4.0 0.00 0.36 0.19 73 1020.1
20200119234429 46 248 0.0 4.0 0.00 0.36 0.19 73 1020.0
20200119234330 46 248 0.0 4.0 0.00 0.36 0.19 73 1020.0
20200119234229 46 248 1.0 4.0 0.00 0.36 0.19 72 1020.1
20200119234128 46 248 2.0 4.0 0.00 0.36 0.19 72 1020.1
20200119234028 46 230 2.0 4.0 0.00 0.36 0.19 72 1020.2
20200119233830 46 233 1.0 4.0 0.00 0.36 0.19 72 1020.2
20200119233729 46 257 1.0 4.0 0.00 0.37 0.19 72 1020.2
20200119233627 46 253 2.0 4.0 0.00 0.37 0.19 72 1020.3
20200119233529 47 117 2.0 5.0 0.00 0.37 0.19 72 1020.5
20200119233428 47 227 2.0 6.0 0.00 0.37 0.19 71 1020.2
20200119233330 47 245 1.0 6.0 0.00 0.37 0.19 71 1020.2
20200119233227 47 231 1.0 6.0 0.00 0.37 0.19 71 1020.3
20200119233129 47 198 1.0 6.0 0.00 0.37 0.19 71 1020.2
20200119233028 47 188 1.0 7.0 0.00 0.37 0.19 71 1020.1
20200119232926 47 237 1.0 9.0 0.00 0.37 0.19 71 1020.2
20200119232828 47 269 2.0 9.0 0.00 0.37 0.19 71 1020.1
20200119232727 47 234 2.0 9.0 0.00 0.37 0.19 70 1020.1
20200119232628 47 233 2.0 9.0 0.00 0.37 0.19 71 1020.1
20200119232528 47 248 1.0 9.0 0.00 0.37 0.19 71 1020.2
20200119232428 47 346 1.0 9.0 0.00 0.37 0.19 71 1020.2
20200119232329 47 220 2.0 9.0 0.00 0.37 0.19 72 1020.2
20200119232227 47 268 2.0 9.0 0.00 0.37 0.19 72 1020.3
20200119232128 47 120 3.0 9.0 0.00 0.37 0.19 72 1020.1
20200119232027 47 230 1.0 9.0 0.00 0.37 0.19 72 1020.2
20200119231927 46 158 0.0 5.0 0.00 0.38 0.19 72 1020.2
20200119231828 46 147 1.0 5.0 0.00 0.38 0.19 72 1020.2
20200119231728 46 158 2.0 5.0 0.00 0.38 0.19 73 1020.1
20200119231627 46 250 2.0 5.0 0.00 0.38 0.19 73 1020.1
20200119231527 46 236 1.0 5.0 0.00 0.38 0.19 73 1020.2
20200119231428 46 231 2.0 5.0 0.00 0.38 0.19 73 1020.2
20200119231330 46 230 3.0 5.0 0.00 0.38 0.19 72 1020.2
20200119231227 46 222 2.0 5.0 0.00 0.38 0.19 72 1020.2
20200119231127 46 241 0.0 5.0 0.00 0.38 0.19 72 1020.3
20200119231028 46 220 1.0 5.0 0.00 0.38 0.19 72 1020.3
20200119230927 46 245 2.0 5.0 0.00 0.38 0.19 72 1020.2
20200119230828 46 236 1.0 5.0 0.00 0.38 0.19 72 1020.2
20200119230730 47 279 1.0 5.0 0.00 0.39 0.19 71 1020.4
20200119230628 47 279 2.0 5.0 0.00 0.39 0.19 71 1020.5
20200119230527 47 152 1.0 5.0 0.00 0.39 0.19 72 1020.5
20200119230427 47 257 0.0 4.0 0.00 0.39 0.19 71 1020.3
20200119230328 47 199 1.0 6.0 0.00 0.39 0.19 71 1020.5
20200119230228 47 199 1.0 6.0 0.00 0.39 0.19 71 1020.2
20200119230126 48 233 0.0 6.0 0.00 0.39 0.19 70 1020.5
20200119230027 48 233 1.0 6.0 0.00 0.39 0.19 70 1020.5
20200119225927 48 244 1.0 6.0 0.00 0.39 0.19 69 1020.4
20200119225828 48 255 0.0 6.0 0.00 0.39 0.19 69 1020.4
20200119225726 48 255 0.0 7.0 0.00 0.39 0.19 69 1020.4
20200119225627 48 255 0.0 7.0 0.00 0.39 0.19 69 1020.3
20200119225528 48 240 2.0 7.0 0.00 0.39 0.19 69 1020.3
20200119225426 48 105 2.0 7.0 0.00 0.39 0.19 69 1020.4
20200119225328 48 151 1.0 7.0 0.00 0.39 0.19 69 1020.4
20200119225226 48 193 0.0 7.0 0.00 0.40 0.19 69 1020.5
20200119225127 48 193 0.0 7.0 0.00 0.40 0.19 69 1020.5
20200119225027 48 189 1.0 7.0 0.00 0.40 0.19 70 1020.4
20200119224927 48 157 2.0 7.0 0.00 0.40 0.19 70 1020.3
20200119224828 48 152 3.0 7.0 0.00 0.40 0.19 70 1020.3
20200119224727 47 108 2.0 6.0 0.00 0.40 0.19 70 1020.4
20200119224628 47 107 2.0 5.0 0.00 0.40 0.19 70 1020.4
20200119224527 47 147 2.0 5.0 0.00 0.40 0.19 70 1020.4
20200119224427 47 115 2.0 5.0 0.00 0.40 0.19 71 1020.2
20200119224329 47 317 2.0 5.0 0.00 0.40 0.19 71 1020.2
20200119224226 47 108 1.0 4.0 0.00 0.40 0.19 71 1020.5
20200119224127 47 226 1.0 4.0 0.00 0.40 0.19 71 1020.4
20200119224028 47 236 1.0 3.0 0.00 0.41 0.19 71 1020.2
20200119223927 47 154 1.0 3.0 0.00 0.41 0.19 71 1020.4
20200119223828 47 237 0.0 3.0 0.00 0.41 0.19 71 1020.4
20200119223726 47 237 0.0 4.0 0.00 0.41 0.19 71 1020.4
20200119223627 47 224 0.0 4.0 0.00 0.41 0.19 71 1020.4
20200119223527 47 206 1.0 4.0 0.00 0.41 0.19 71 1020.4
20200119223426 47 247 1.0 4.0 0.00 0.41 0.19 71 1020.4
20200119223328 47 334 1.0 4.0 0.00 0.41 0.19 72 1020.3
20200119223227 47 233 1.0 4.0 0.00 0.41 0.19 71 1020.4
20200119223128 47 233 1.0 4.0 0.00 0.41 0.19 71 1020.4
20200119223026 47 224 0.0 4.0 0.00 0.41 0.19 71 1020.2
20200119222928 47 161 1.0 4.0 0.00 0.41 0.19 71 1020.5
20200119222834 47 230 2.0 4.0 0.00 0.41 0.19 72 1020.5
20200119222730 47 198 1.0 3.0 0.00 0.41 0.19 72 1020.4
20200119222626 47 336 1.0 3.0 0.00 0.41 0.19 72 1020.5
20200119222527 47 291 0.0 3.0 0.00 0.41 0.19 72 1020.4
20200119222426 47 236 0.0 3.0 0.00 0.41 0.19 71 1020.4
20200119222327 47 237 0.0 4.0 0.00 0.42 0.19 71 1020.4
20200119222226 47 237 0.0 4.0 0.00 0.42 0.19 71 1020.7
20200119222127 47 237 0.0 4.0 0.00 0.42 0.19 71 1020.7
20200119222026 47 237 0.0 7.0 0.00 0.42 0.19 70 1020.6
20200119221926 48 237 0.0 7.0 0.00 0.42 0.19 70 1020.5
20200119221829 48 237 0.0 7.0 0.00 0.42 0.19 69 1020.5
20200119221728 48 237 2.0 7.0 0.00 0.42 0.19 68 1020.6
20200119221628 48 219 2.0 7.0 0.00 0.42 0.19 68 1020.7
20200119221525 48 217 3.0 7.0 0.00 0.42 0.19 68 1020.7
20200119221427 49 240 2.0 7.0 0.00 0.43 0.19 68 1020.6
20200119221331 49 233 0.0 7.0 0.00 0.43 0.19 67 1020.8
20200119221227 49 272 2.0 7.0 0.00 0.43 0.19 67 1020.8
20200119221127 49 272 2.0 7.0 0.00 0.43 0.19 67 1020.6
20200119221026 49 267 0.0 5.0 0.00 0.43 0.19 68 1020.7
20200119220927 49 128 0.0 7.0 0.00 0.43 0.19 67 1020.8
20200119220828 49 128 0.0 10.0 0.00 0.43 0.19 67 1020.8
20200119220725 49 128 0.0 10.0 0.00 0.43 0.19 67 1020.7
20200119220625 49 128 0.0 10.0 0.00 0.43 0.19 67 1020.8
20200119220526 49 105 2.0 10.0 0.00 0.43 0.19 67 1020.8
20200119220426 49 120 2.0 10.0 0.00 0.43 0.19 67 1020.9
20200119220327 49 120 1.0 10.0 0.00 0.43 0.19 67 1020.9
20200119220226 49 121 2.0 10.0 0.00 0.43 0.19 67 1020.8
20200119220127 49 67 3.0 10.0 0.00 0.43 0.19 67 1020.8
20200119220026 49 120 3.0 10.0 0.00 0.43 0.19 66 1020.9
20200119215925 49 103 3.0 10.0 0.00 0.44 0.19 67 1020.8
20200119215827 49 277 3.0 9.0 0.00 0.44 0.19 67 1020.9
20200119215725 49 341 3.0 9.0 0.00 0.44 0.19 67 1021.0
20200119215625 49 120 1.0 12.0 0.00 0.44 0.19 67 1021.0
20200119215525 49 209 0.0 12.0 0.00 0.44 0.19 67 1021.0
20200119215425 49 209 2.0 12.0 0.00 0.44 0.19 66 1020.9
20200119215328 49 210 3.0 12.0 0.00 0.44 0.19 66 1020.9
20200119215226 49 159 1.0 12.0 0.00 0.44 0.19 67 1021.1
20200119215126 49 120 1.0 12.0 0.00 0.44 0.19 67 1021.2
20200119215025 49 120 2.0 12.0 0.00 0.44 0.19 66 1021.2
20200119214926 49 120 3.0 12.0 0.00 0.44 0.19 66 1021.1
20200119214827 49 120 4.0 12.0 0.00 0.44 0.19 67 1021.1
20200119214726 49 72 4.0 12.0 0.00 0.45 0.19 67 1021.0
20200119214626 49 97 4.0 11.0 0.00 0.45 0.19 67 1021.0
20200119214524 49 81 2.0 11.0 0.00 0.45 0.19 67 1021.1
20200119214426 49 120 2.0 11.0 0.00 0.45 0.19 67 1021.0
20200119214327 49 167 2.0 12.0 0.00 0.45 0.19 67 1021.0
20200119214226 49 101 0.0 12.0 0.00 0.45 0.19 67 1021.0
20200119214124 49 101 1.0 12.0 0.00 0.45 0.19 67 1021.1
20200119214026 49 90 1.0 12.0 0.00 0.45 0.19 67 1021.2
20200119213925 49 120 1.0 12.0 0.00 0.45 0.19 67 1021.2
20200119213828 49 118 1.0 12.0 0.00 0.45 0.19 67 1021.2
20200119213725 49 93 3.0 12.0 0.00 0.45 0.19 67 1021.2
20200119213626 49 117 4.0 12.0 0.00 0.45 0.19 67 1021.2
20200119213525 49 120 3.0 12.0 0.00 0.45 0.19 67 1021.2
20200119213424 49 143 2.0 12.0 0.00 0.46 0.19 67 1021.1
20200119213327 49 144 1.0 7.0 0.00 0.46 0.19 67 1021.1
20200119213225 49 113 2.0 7.0 0.00 0.46 0.19 67 1021.1
20200119213124 49 114 2.0 7.0 0.00 0.46 0.19 67 1021.1
20200119213026 49 148 2.0 7.0 0.00 0.46 0.19 67 1021.2
20200119212925 49 126 2.0 7.0 0.00 0.46 0.19 67 1021.2
20200119212826 48 120 2.0 11.0 0.00 0.46 0.19 68 1021.2
20200119212725 48 118 1.0 11.0 0.00 0.46 0.19 68 1021.3
20200119212625 48 118 1.0 11.0 0.00 0.46 0.19 68 1021.3
20200119212526 48 118 1.0 11.0 0.00 0.46 0.19 68 1021.2
20200119212423 48 118 1.0 11.0 0.00 0.46 0.19 68 1021.2
20200119212327 48 90 2.0 11.0 0.00 0.47 0.19 67 1021.2
20200119212224 48 84 3.0 11.0 0.00 0.47 0.19 68 1021.4
20200119212124 48 165 3.0 11.0 0.00 0.47 0.19 68 1021.4
20200119212025 48 101 2.0 11.0 0.00 0.47 0.19 68 1021.4
20200119211925 48 134 1.0 11.0 0.00 0.47 0.19 68 1021.4
20200119211826 48 195 1.0 6.0 0.00 0.47 0.19 68 1021.4
20200119211724 49 140 0.0 6.0 0.00 0.47 0.19 68 1021.4
20200119211625 49 143 1.0 6.0 0.00 0.47 0.19 67 1021.4
20200119211524 49 143 1.0 6.0 0.00 0.47 0.19 67 1021.3
20200119211425 49 286 0.0 5.0 0.00 0.47 0.19 67 1021.5
20200119211326 49 162 1.0 5.0 0.00 0.47 0.19 67 1021.4
20200119211224 49 162 1.0 9.0 0.00 0.47 0.19 67 1021.4
20200119211124 49 171 1.0 14.0 0.00 0.47 0.19 68 1021.4
20200119211024 49 144 0.0 14.0 0.00 0.47 0.19 68 1021.5
20200119210923 49 255 0.0 14.0 0.00 0.47 0.19 67 1021.4
20200119210827 49 255 0.0 14.0 0.00 0.47 0.19 68 1021.4
20200119210724 49 157 0.0 14.0 0.00 0.48 0.19 67 1021.6
20200119210624 49 157 2.0 14.0 0.00 0.48 0.19 67 1021.6
20200119210524 49 157 2.0 14.0 0.00 0.48 0.19 67 1021.5
20200119210424 49 120 1.0 14.0 0.00 0.48 0.19 67 1021.5
20200119210328 49 147 3.0 14.0 0.00 0.48 0.19 67 1021.4
20200119210225 49 174 5.0 14.0 0.00 0.48 0.19 67 1021.5
20200119210123 49 101 2.0 11.0 0.00 0.48 0.19 67 1021.7
20200119210025 49 148 2.0 11.0 0.00 0.48 0.19 67 1021.7
20200119205924 49 148 4.0 11.0 0.00 0.48 0.19 67 1021.6
20200119205825 49 120 5.0 11.0 0.00 0.48 0.19 67 1021.6
20200119205723 49 143 3.0 11.0 0.00 0.48 0.19 67 1021.8
20200119205624 49 94 2.0 10.0 0.00 0.49 0.19 67 1021.8
20200119205524 48 120 3.0 10.0 0.00 0.49 0.19 67 1021.9
20200119205423 48 271 4.0 10.0 0.00 0.49 0.19 67 1021.7
20200119205325 48 216 4.0 10.0 0.00 0.49 0.19 68 1021.7
20200119205223 48 115 4.0 9.0 0.00 0.49 0.19 68 1022.1
20200119205124 48 114 2.0 9.0 0.00 0.49 0.19 68 1022.1
20200119205023 48 121 1.0 9.0 0.00 0.49 0.19 69 1021.9
20200119204925 48 121 3.0 9.0 0.00 0.49 0.19 69 1021.9
20200119204826 47 100 4.0 9.0 0.00 0.49 0.19 69 1021.9
20200119204723 47 118 3.0 9.0 0.00 0.49 0.19 70 1022.0
20200119204623 47 55 1.0 7.0 0.00 0.49 0.19 71 1022.0
20200119204525 47 300 1.0 4.0 0.00 0.49 0.19 71 1022.0
20200119204424 47 117 1.0 4.0 0.00 0.49 0.19 71 1021.9
20200119204324 47 205 0.0 4.0 0.00 0.49 0.19 71 1021.9
20200119204224 47 205 1.0 4.0 0.00 0.49 0.19 71 1021.9
20200119204124 47 193 1.0 4.0 0.00 0.49 0.19 71 1022.1
20200119204024 47 260 0.0 3.0 0.00 0.50 0.19 71 1022.1
20200119203923 47 260 1.0 3.0 0.00 0.50 0.19 71 1022.0
20200119203825 47 234 1.0 3.0 0.00 0.50 0.19 70 1021.9
20200119203723 47 224 1.0 3.0 0.00 0.50 0.19 70 1022.0
20200119203623 47 255 0.0 3.0 0.00 0.50 0.19 70 1022.0
20200119203523 47 255 0.0 3.0 0.00 0.50 0.19 70 1022.0
20200119203424 48 255 0.0 3.0 0.00 0.50 0.19 69 1021.9
20200119203324 48 234 1.0 3.0 0.00 0.50 0.19 69 1021.9
20200119203223 48 234 1.0 3.0 0.00 0.50 0.19 69 1021.9
20200119203123 48 120 0.0 3.0 0.00 0.50 0.19 68 1021.9
20200119203023 48 120 0.0 3.0 0.00 0.51 0.19 69 1022.0
20200119202922 48 120 1.0 3.0 0.00 0.51 0.19 70 1022.1
20200119202824 48 120 0.0 7.0 0.00 0.51 0.19 70 1022.1
20200119202723 48 171 0.0 9.0 0.00 0.51 0.19 70 1022.2
20200119202624 48 134 1.0 11.0 0.00 0.51 0.19 70 1022.2
20200119202523 48 148 0.0 11.0 0.00 0.51 0.19 70 1022.3
20200119202422 48 179 0.0 11.0 0.00 0.51 0.19 69 1022.3
20200119202325 48 179 0.0 11.0 0.00 0.51 0.19 68 1022.3
20200119202223 48 167 0.0 11.0 0.00 0.51 0.19 68 1022.3
20200119202123 48 167 0.0 11.0 0.00 0.51 0.19 67 1022.3
20200119202023 48 120 2.0 14.0 0.00 0.51 0.19 67 1022.4
20200119201923 48 118 4.0 14.0 0.00 0.51 0.19 67 1022.4
20200119201826 48 145 4.0 14.0 0.00 0.51 0.19 67 1022.3
20200119201724 48 289 3.0 14.0 0.00 0.51 0.19 67 1022.1
20200119201623 48 141 1.0 14.0 0.00 0.51 0.19 67 1022.3
20200119201522 48 113 2.0 14.0 0.00 0.52 0.19 67 1022.5
20200119201423 48 220 4.0 14.0 0.00 0.52 0.19 67 1022.4
20200119201325 48 324 4.0 14.0 0.00 0.52 0.19 67 1022.5
20200119201223 48 121 5.0 14.0 0.00 0.52 0.19 67 1022.4
20200119201122 48 100 4.0 14.0 0.00 0.52 0.19 67 1022.4
20200119201024 48 154 2.0 9.0 0.00 0.52 0.19 67 1022.4
20200119200923 48 143 1.0 9.0 0.00 0.52 0.19 68 1022.4
20200119200824 48 210 1.0 9.0 0.00 0.52 0.19 68 1022.5
20200119200722 48 107 3.0 9.0 0.00 0.52 0.19 68 1022.6
20200119200624 48 94 2.0 9.0 0.00 0.52 0.19 68 1022.6
20200119200522 48 161 1.0 6.0 0.00 0.52 0.19 69 1022.6
20200119200423 47 162 1.0 6.0 0.00 0.53 0.19 69 1022.5
20200119200325 47 155 1.0 6.0 0.00 0.53 0.19 69 1022.7
20200119200222 47 134 1.0 6.0 0.00 0.53 0.19 69 1022.6
20200119200124 47 148 2.0 6.0 0.00 0.53 0.19 69 1022.7
20200119200023 47 212 2.0 6.0 0.00 0.53 0.19 71 1022.6
20200119195923 47 169 0.0 4.0 0.00 0.53 0.19 71 1022.7
20200119195824 48 169 0.0 4.0 0.00 0.53 0.19 71 1022.7
20200119195723 48 169 0.0 4.0 0.00 0.53 0.19 69 1022.7
20200119195624 48 120 0.0 5.0 0.00 0.53 0.19 68 1022.7
20200119195523 48 120 1.0 9.0 0.00 0.53 0.19 68 1022.6
20200119195422 47 120 1.0 9.0 0.00 0.53 0.19 69 1022.7
20200119195323 47 226 1.0 9.0 0.00 0.53 0.19 69 1022.7
20200119195222 47 243 1.0 9.0 0.00 0.53 0.19 69 1022.9
20200119195122 47 243 1.0 9.0 0.00 0.53 0.19 69 1022.9
20200119195022 47 121 1.0 9.0 0.00 0.53 0.19 69 1022.9
20200119194923 47 123 0.0 9.0 0.00 0.53 0.19 70 1022.9
20200119194823 47 123 1.0 9.0 0.00 0.53 0.19 69 1022.9
20200119194722 47 46 2.0 9.0 0.01 0.53 0.19 69 1022.9
20200119194623 47 281 2.0 7.0 0.01 0.54 0.19 69 1022.9
20200119194522 47 257 1.0 7.0 0.01 0.54 0.19 70 1022.7
20200119194422 47 330 1.0 7.0 0.01 0.54 0.19 70 1023.0
20200119194323 47 93 1.0 7.0 0.01 0.54 0.19 69 1023.0
20200119194222 47 234 1.0 11.0 0.01 0.54 0.19 69 1022.7
20200119194122 47 89 2.0 11.0 0.01 0.54 0.19 69 1022.9
20200119194021 47 308 2.0 11.0 0.01 0.54 0.19 69 1023.1
20200119193923 47 105 2.0 11.0 0.01 0.54 0.19 69 1023.1
20200119193824 47 251 2.0 11.0 0.01 0.54 0.19 69 1022.9
20200119193721 47 49 1.0 11.0 0.01 0.54 0.19 69 1022.9
20200119193622 47 154 1.0 11.0 0.01 0.54 0.19 69 1022.9
20200119193522 47 120 2.0 11.0 0.01 0.54 0.19 69 1023.2
20200119193423 47 110 5.0 11.0 0.01 0.54 0.19 69 1022.9
20200119193324 47 138 4.0 11.0 0.01 0.54 0.19 69 1022.7
20200119193223 47 120 1.0 11.0 0.01 0.55 0.19 69 1023.0
20200119193122 47 32 1.0 11.0 0.01 0.55 0.19 70 1022.9
20200119193021 47 133 0.0 11.0 0.01 0.55 0.19 70 1023.0
20200119192922 47 233 0.0 11.0 0.01 0.55 0.19 70 1023.1
20200119192823 47 233 0.0 11.0 0.01 0.55 0.19 70 1022.9
20200119192722 47 168 1.0 11.0 0.01 0.55 0.19 69 1023.0
20200119192621 47 136 2.0 11.0 0.01 0.55 0.19 69 1023.0
20200119192523 47 241 2.0 11.0 0.01 0.55 0.19 70 1023.1
20200119192422 47 341 3.0 11.0 0.01 0.55 0.19 70 1023.1
20200119192323 47 105 2.0 11.0 0.01 0.55 0.19 70 1023.1
20200119192221 47 128 1.0 6.0 0.01 0.55 0.19 70 1023.0
20200119192121 47 165 1.0 6.0 0.01 0.55 0.19 70 1023.0
20200119192021 47 198 1.0 6.0 0.01 0.55 0.19 70 1023.0
20200119191921 47 192 0.0 5.0 0.01 0.55 0.19 70 1023.1
20200119191822 47 191 1.0 5.0 0.01 0.55 0.19 70 1023.1
20200119191721 47 136 1.0 7.0 0.01 0.55 0.19 70 1023.1
20200119191622 47 114 2.0 7.0 0.01 0.55 0.19 70 1023.2
20200119191521 47 143 1.0 7.0 0.01 0.55 0.19 70 1023.1
20200119191421 47 90 0.0 9.0 0.01 0.55 0.19 70 1023.2
20200119191324 47 18 1.0 9.0 0.01 0.55 0.19 70 1023.2
20200119191220 47 17 2.0 9.0 0.01 0.55 0.19 70 1023.0
20200119191121 47 87 2.0 9.0 0.02 0.56 0.19 70 1023.0
20200119191021 47 120 1.0 9.0 0.02 0.56 0.19 69 1023.1
20200119190922 47 162 2.0 9.0 0.02 0.56 0.19 69 1023.0
20200119190823 47 162 3.0 9.0 0.02 0.56 0.19 70 1023.2
20200119190722 47 258 2.0 9.0 0.02 0.56 0.19 70 1023.2
20200119190622 46 181 4.0 9.0 0.02 0.56 0.19 70 1023.2
20200119190521 46 174 4.0 9.0 0.02 0.56 0.19 70 1023.2
20200119190421 46 167 1.0 4.0 0.02 0.56 0.19 72 1023.1
20200119190322 46 227 1.0 5.0 0.02 0.56 0.19 71 1023.3
20200119190222 46 229 0.0 5.0 0.02 0.56 0.19 72 1023.2
20200119190121 46 26 0.0 5.0 0.02 0.56 0.19 72 1023.1
20200119190021 46 26 1.0 6.0 0.02 0.56 0.19 71 1023.3
20200119185922 46 257 0.0 6.0 0.02 0.56 0.19 71 1023.3
20200119185824 46 245 1.0 6.0 0.02 0.56 0.19 71 1023.1
20200119185722 46 245 2.0 6.0 0.02 0.56 0.19 70 1023.2
20200119185622 46 240 1.0 7.0 0.02 0.57 0.19 70 1023.2
20200119185522 46 264 2.0 7.0 0.02 0.57 0.19 71 1023.3
20200119185421 46 248 1.0 7.0 0.02 0.57 0.19 71 1023.3
20200119185322 46 101 0.0 7.0 0.02 0.57 0.19 71 1023.4
20200119185221 46 101 2.0 10.0 0.02 0.57 0.19 71 1023.3
20200119185121 46 101 2.0 10.0 0.02 0.57 0.19 70 1023.3
20200119185022 46 250 1.0 10.0 0.02 0.57 0.19 70 1023.2
20200119184921 46 147 1.0 10.0 0.02 0.57 0.19 70 1023.2
20200119184822 46 138 1.0 10.0 0.03 0.57 0.19 70 1023.5
20200119184720 46 143 1.0 10.0 0.02 0.56 0.18 70 1023.5
20200119184620 46 244 1.0 10.0 0.02 0.56 0.18 70 1023.3
20200119184522 46 161 2.0 10.0 0.02 0.56 0.18 70 1023.3
20200119184420 46 143 3.0 10.0 0.02 0.56 0.18 70 1023.3
20200119184321 46 147 4.0 10.0 0.02 0.56 0.18 70 1023.3
20200119184220 46 140 2.0 10.0 0.02 0.56 0.18 70 1023.3
20200119184120 46 131 1.0 10.0 0.02 0.56 0.18 71 1023.2
20200119184021 46 330 2.0 10.0 0.02 0.56 0.18 71 1023.2
20200119183920 46 182 2.0 10.0 0.02 0.56 0.18 70 1023.3
20200119183822 46 244 0.0 7.0 0.02 0.56 0.18 70 1023.3
20200119183720 46 118 2.0 7.0 0.02 0.56 0.18 70 1023.3
20200119183621 46 284 1.0 7.0 0.02 0.56 0.18 70 1023.4
20200119183521 46 143 1.0 7.0 0.02 0.56 0.18 71 1023.4
20200119183420 46 141 1.0 7.0 0.02 0.56 0.18 71 1023.4
20200119183321 46 128 1.0 4.0 0.02 0.56 0.18 72 1023.4
20200119183220 46 120 1.0 4.0 0.02 0.56 0.18 72 1023.4
20200119183120 46 137 1.0 4.0 0.02 0.56 0.18 71 1023.4
20200119183021 46 137 1.0 4.0 0.02 0.57 0.18 71 1023.2
20200119182921 46 167 0.0 6.0 0.02 0.57 0.18 71 1023.4
20200119182821 46 262 0.0 6.0 0.02 0.57 0.18 72 1023.4
20200119182720 46 262 0.0 6.0 0.02 0.57 0.18 71 1023.2
20200119182620 46 255 0.0 6.0 0.02 0.57 0.18 71 1023.2
20200119182520 46 209 0.0 12.0 0.02 0.57 0.18 71 1023.3
20200119182420 46 209 1.0 12.0 0.02 0.57 0.18 71 1023.3
20200119182321 46 286 1.0 12.0 0.02 0.57 0.18 70 1023.0
20200119182220 46 55 1.0 12.0 0.02 0.57 0.18 70 1023.4
20200119182121 46 351 2.0 12.0 0.02 0.57 0.18 70 1023.1
20200119182020 46 193 2.0 12.0 0.03 0.57 0.18 70 1023.2
20200119181919 46 124 1.0 12.0 0.03 0.57 0.18 70 1023.3
20200119181822 46 120 1.0 12.0 0.03 0.57 0.18 70 1023.4
20200119181721 46 237 2.0 12.0 0.03 0.57 0.18 70 1023.3
20200119181621 46 275 2.0 12.0 0.03 0.57 0.18 70 1023.2
20200119181519 46 110 1.0 12.0 0.03 0.57 0.18 71 1023.2
20200119181419 46 120 1.0 12.0 0.03 0.57 0.18 71 1023.2
20200119181322 45 289 4.0 12.0 0.03 0.57 0.18 71 1023.2
20200119181221 45 120 4.0 12.0 0.03 0.57 0.18 72 1023.3
20200119181119 45 167 2.0 7.0 0.02 0.56 0.17 72 1023.1
20200119181019 45 29 2.0 7.0 0.02 0.57 0.17 72 1023.2
20200119180921 45 120 2.0 10.0 0.02 0.57 0.17 72 1023.4
20200119180822 45 167 2.0 10.0 0.02 0.57 0.17 72 1023.2
20200119180720 45 120 3.0 10.0 0.02 0.57 0.17 72 1023.2
20200119180620 45 31 2.0 10.0 0.02 0.57 0.17 73 1023.2
20200119180519 45 91 0.0 10.0 0.02 0.57 0.17 73 1023.7
20200119180421 45 247 0.0 10.0 0.02 0.57 0.17 72 1023.4
20200119180321 45 247 1.0 10.0 0.02 0.57 0.17 72 1023.3
20200119180221 45 247 2.0 10.0 0.02 0.57 0.17 72 1023.2
20200119180119 45 97 3.0 10.0 0.02 0.57 0.17 72 1023.1
20200119180019 45 133 2.0 10.0 0.03 0.57 0.17 72 1023.5
20200119175919 45 113 1.0 7.0 0.03 0.57 0.17 72 1023.4
20200119175821 45 157 0.0 7.0 0.03 0.57 0.17 72 1023.5
20200119175719 45 157 1.0 7.0 0.03 0.57 0.17 72 1023.5
20200119175619 45 157 2.0 7.0 0.03 0.57 0.17 72 1023.4
20200119175519 44 115 2.0 5.0 0.03 0.57 0.17 73 1023.5
20200119175419 44 96 2.0 5.0 0.03 0.57 0.17 72 1023.4
20200119175321 44 209 1.0 5.0 0.03 0.57 0.17 73 1023.4
20200119175219 44 258 0.0 5.0 0.03 0.57 0.17 73 1023.5
20200119175120 44 258 1.0 5.0 0.03 0.57 0.17 73 1023.4
20200119175019 45 118 2.0 5.0 0.03 0.57 0.17 73 1023.4
20200119174919 45 183 3.0 5.0 0.03 0.57 0.17 73 1023.4
20200119174820 44 83 2.0 5.0 0.02 0.56 0.16 72 1023.5
20200119174719 44 224 2.0 5.0 0.02 0.56 0.16 72 1023.3
20200119174619 44 118 2.0 5.0 0.02 0.56 0.16 74 1023.5
20200119174520 44 91 1.0 5.0 0.02 0.56 0.16 73 1023.5
20200119174420 44 288 1.0 7.0 0.02 0.56 0.16 74 1023.5
20200119174320 44 332 2.0 7.0 0.02 0.56 0.16 74 1023.4
20200119174220 44 209 2.0 7.0 0.02 0.56 0.16 73 1023.6
20200119174119 44 237 1.0 7.0 0.02 0.56 0.16 73 1023.6
20200119174020 44 237 1.0 7.0 0.02 0.56 0.16 74 1023.6
20200119173919 44 248 0.0 7.0 0.02 0.56 0.16 73 1023.6
20200119173820 44 248 0.0 11.0 0.02 0.56 0.16 73 1023.5
20200119173720 44 248 1.0 11.0 0.02 0.56 0.16 73 1023.5
20200119173619 44 123 1.0 11.0 0.02 0.56 0.16 73 1023.5
20200119173519 44 131 1.0 11.0 0.02 0.56 0.16 73 1023.5
20200119173418 44 230 1.0 11.0 0.02 0.56 0.16 74 1023.5
20200119173320 44 247 1.0 11.0 0.02 0.57 0.16 73 1023.6
20200119173220 44 200 2.0 11.0 0.02 0.57 0.16 73 1023.6
20200119173119 44 210 2.0 11.0 0.02 0.57 0.16 73 1023.5
20200119173019 44 115 4.0 11.0 0.02 0.57 0.16 73 1023.7
20200119172918 44 96 3.0 11.0 0.02 0.57 0.16 73 1023.7
20200119172820 44 97 2.0 5.0 0.02 0.57 0.16 74 1024.0
20200119172719 44 231 1.0 7.0 0.02 0.57 0.16 74 1023.8
20200119172618 44 130 2.0 7.0 0.02 0.57 0.16 74 1023.9
20200119172519 44 114 2.0 7.0 0.02 0.57 0.16 74 1023.9
20200119172419 44 120 1.0 7.0 0.02 0.57 0.16 75 1023.8
20200119172321 44 279 0.0 7.0 0.02 0.57 0.16 74 1023.8
20200119172218 44 157 1.0 7.0 0.02 0.57 0.16 74 1023.7
20200119172118 44 158 1.0 7.0 0.02 0.57 0.16 75 1023.8
20200119172019 44 227 1.0 7.0 0.02 0.56 0.16 75 1023.8
20200119171918 44 120 2.0 7.0 0.02 0.56 0.15 74 1023.8
20200119171819 44 120 2.0 7.0 0.02 0.56 0.15 74 1023.8
20200119171718 44 254 1.0 5.0 0.02 0.56 0.15 74 1023.7
20200119171619 44 337 1.0 5.0 0.02 0.56 0.15 74 1023.7
20200119171518 44 115 0.0 13.0 0.02 0.56 0.15 74 1023.6
20200119171418 44 114 2.0 13.0 0.02 0.56 0.15 74 1023.7
20200119171320 44 111 2.0 13.0 0.02 0.56 0.15 74 1023.7
20200119171218 44 165 1.0 13.0 0.02 0.56 0.15 74 1023.6
20200119171118 44 220 1.0 13.0 0.02 0.56 0.15 74 1023.6
20200119171018 44 281 1.0 13.0 0.02 0.56 0.15 74 1023.5
20200119170920 44 108 0.0 13.0 0.02 0.56 0.15 74 1023.6
20200119170820 44 178 1.0 13.0 0.02 0.56 0.15 74 1023.6
20200119170719 43 176 2.0 13.0 0.02 0.56 0.15 74 1023.5
20200119170618 43 151 2.0 13.0 0.02 0.57 0.15 74 1023.5
20200119170518 43 169 0.0 9.0 0.02 0.57 0.15 75 1023.5
20200119170418 43 159 0.0 9.0 0.02 0.57 0.15 75 1023.5
20200119170320 43 158 1.0 9.0 0.02 0.57 0.15 75 1023.6
20200119170219 43 158 4.0 9.0 0.02 0.57 0.15 76 1023.6
20200119170117 42 91 3.0 9.0 0.02 0.57 0.15 76 1023.6
20200119170020 42 167 2.0 9.0 0.01 0.56 0.14 77 1023.6
20200119165919 42 120 2.0 9.0 0.01 0.56 0.14 78 1023.6
20200119165820 41 136 0.0 9.0 0.01 0.56 0.14 79 1023.6
20200119165719 41 152 1.0 9.0 0.01 0.56 0.14 79 1023.6
20200119165618 41 152 1.0 9.0 0.01 0.56 0.14 79 1023.6
20200119165519 41 255 0.0 9.0 0.01 0.56 0.14 79 1023.6
20200119165418 41 158 0.0 9.0 0.01 0.56 0.14 79 1023.6
20200119165320 41 157 2.0 9.0 0.01 0.56 0.14 80 1023.6
20200119165218 40 136 2.0 9.0 0.01 0.56 0.14 80 1023.6
20200119165118 40 237 1.0 4.0 0.01 0.56 0.14 80 1023.6
20200119165018 40 238 2.0 4.0 0.01 0.56 0.14 81 1023.5
20200119164918 40 209 1.0 4.0 0.01 0.56 0.14 81 1023.5
20200119164820 40 262 1.0 4.0 0.01 0.56 0.14 81 1023.5
20200119164717 40 229 0.0 3.0 0.01 0.56 0.14 81 1023.6
20200119164620 40 229 0.0 3.0 0.02 0.56 0.14 81 1023.6
20200119164517 40 229 0.0 7.0 0.02 0.56 0.14 81 1023.7
20200119164418 40 229 0.0 7.0 0.02 0.56 0.14 81 1023.6
20200119164320 40 229 1.0 7.0 0.02 0.56 0.14 81 1023.6
20200119164217 40 240 2.0 7.0 0.02 0.56 0.14 81 1023.4
20200119164119 40 167 1.0 7.0 0.02 0.56 0.14 81 1023.6
20200119164017 40 284 0.0 7.0 0.02 0.56 0.14 81 1023.4
20200119163917 40 220 0.0 7.0 0.02 0.56 0.14 80 1023.6
20200119163820 40 219 0.0 7.0 0.02 0.56 0.14 80 1023.5
20200119163717 40 220 2.0 7.0 0.02 0.56 0.14 80 1023.4
20200119163617 40 254 2.0 7.0 0.02 0.56 0.14 80 1023.6
20200119163518 40 223 0.0 2.0 0.02 0.56 0.14 80 1023.6
20200119163418 40 223 0.0 2.0 0.02 0.56 0.14 80 1023.6
20200119163319 40 223 0.0 2.0 0.02 0.56 0.14 80 1023.6
20200119163217 40 222 0.0 2.0 0.02 0.56 0.14 80 1023.7
20200119163118 40 222 0.0 4.0 0.02 0.57 0.14 80 1023.6
20200119163017 40 222 0.0 5.0 0.02 0.57 0.14 80 1023.5
20200119162917 40 216 0.0 5.0 0.02 0.57 0.14 80 1023.6
20200119162819 40 216 0.0 7.0 0.02 0.57 0.14 80 1023.6
20200119162717 40 171 0.0 7.0 0.02 0.57 0.14 80 1023.5
20200119162617 40 165 0.0 9.0 0.02 0.57 0.14 80 1023.5
20200119162517 40 165 0.0 9.0 0.02 0.57 0.14 80 1023.5
20200119162418 40 165 0.0 9.0 0.02 0.57 0.14 80 1023.4
20200119162319 40 164 2.0 9.0 0.02 0.57 0.14 80 1023.4
20200119162217 40 120 2.0 9.0 0.02 0.57 0.14 81 1023.3
20200119162117 40 248 2.0 9.0 0.02 0.57 0.14 81 1023.3
20200119162017 40 143 2.0 9.0 0.01 0.56 0.13 81 1023.6
20200119161917 39 140 3.0 9.0 0.01 0.56 0.13 82 1023.4
20200119161818 39 136 3.0 9.0 0.01 0.56 0.13 82 1023.5
20200119161718 39 261 2.0 9.0 0.01 0.56 0.13 82 1023.4
20200119161617 39 210 0.0 2.0 0.01 0.56 0.13 82 1023.5
20200119161517 39 182 0.0 2.0 0.01 0.56 0.13 82 1023.7
20200119161417 39 251 0.0 2.0 0.01 0.56 0.13 82 1023.7
20200119161319 39 243 0.0 2.0 0.01 0.56 0.13 82 1023.7
20200119161218 39 243 1.0 9.0 0.01 0.56 0.13 81 1023.6
20200119161117 39 241 1.0 9.0 0.02 0.56 0.13 81 1023.6
20200119161018 39 250 1.0 9.0 0.02 0.56 0.13 81 1023.7
20200119160917 39 250 1.0 9.0 0.02 0.56 0.13 81 1023.7
20200119160818 39 250 0.0 9.0 0.02 0.56 0.13 82 1023.7
20200119160718 39 247 0.0 9.0 0.02 0.57 0.13 82 1023.7
20200119160617 39 247 0.0 9.0 0.02 0.57 0.13 82 1023.6
20200119160516 39 247 0.0 9.0 0.02 0.57 0.13 82 1023.6
20200119160417 39 247 1.0 9.0 0.02 0.57 0.13 82 1023.5
20200119160317 39 247 1.0 9.0 0.02 0.57 0.13 82 1023.6
20200119160218 39 243 0.0 3.0 0.02 0.57 0.13 82 1023.6
20200119160116 39 243 0.0 3.0 0.02 0.57 0.13 82 1023.6
20200119160016 39 260 0.0 3.0 0.02 0.57 0.13 82 1023.6
20200119155917 39 260 0.0 3.0 0.02 0.57 0.13 82 1023.6
20200119155822 39 260 1.0 3.0 0.02 0.57 0.13 82 1023.5
20200119155818 39 260 1.0 3.0 0.02 0.57 0.13 82 1023.4
20200119155716 39 260 1.0 3.0 0.02 0.57 0.13 82 1023.4
20200119155617 39 255 0.0 3.0 0.02 0.57 0.13 81 1023.8
20200119155516 40 237 0.0 3.0 0.02 0.57 0.13 81 1023.8
20200119155416 40 237 0.0 3.0 0.02 0.57 0.13 80 1023.8
20200119155318 40 237 0.0 3.0 0.02 0.57 0.13 80 1023.7
20200119155216 40 237 0.0 3.0 0.02 0.57 0.13 79 1023.6
20200119155118 40 237 1.0 5.0 0.02 0.57 0.13 79 1023.6
20200119155016 41 247 1.0 6.0 0.02 0.57 0.13 79 1023.6
20200119154916 41 240 1.0 6.0 0.03 0.57 0.13 78 1023.8
20200119154817 41 237 0.0 6.0 0.03 0.57 0.13 78 1023.8
20200119154716 41 255 0.0 6.0 0.03 0.57 0.13 78 1023.7
20200119154617 41 255 0.0 6.0 0.02 0.56 0.12 78 1023.7
20200119154516 41 255 0.0 6.0 0.02 0.56 0.12 78 1023.6
20200119154416 41 255 1.0 6.0 0.02 0.56 0.12 78 1023.6
20200119154317 41 257 2.0 6.0 0.02 0.56 0.12 79 1023.6
20200119154215 40 258 3.0 6.0 0.02 0.56 0.12 80 1023.6
20200119154116 40 179 1.0 6.0 0.02 0.56 0.12 80 1023.6
20200119154017 40 250 0.0 3.0 0.02 0.56 0.12 80 1023.6
20200119153917 40 250 0.0 3.0 0.02 0.56 0.12 80 1023.5
20200119153819 40 250 0.0 3.0 0.02 0.56 0.12 80 1023.5
20200119153716 40 250 0.0 3.0 0.02 0.56 0.12 79 1023.6
20200119153616 40 250 0.0 3.0 0.02 0.56 0.12 79 1023.6
20200119153516 40 244 1.0 3.0 0.02 0.56 0.12 79 1023.6
20200119153416 40 244 0.0 3.0 0.02 0.56 0.12 79 1023.6
20200119153317 40 289 0.0 2.0 0.02 0.56 0.12 79 1023.7
20200119153215 40 289 0.0 2.0 0.02 0.56 0.12 79 1023.7
20200119153116 40 275 0.0 2.0 0.02 0.56 0.12 79 1023.8
20200119153015 40 275 0.0 6.0 0.02 0.56 0.12 79 1023.8
20200119152916 40 275 0.0 6.0 0.02 0.56 0.12 79 1023.8
20200119152817 40 275 0.0 6.0 0.02 0.56 0.12 79 1023.9
20200119152715 41 275 1.0 6.0 0.02 0.56 0.12 79 1023.8
20200119152616 41 275 1.0 6.0 0.02 0.56 0.12 79 1023.9
20200119152516 41 275 0.0 6.0 0.02 0.56 0.12 79 1023.9
20200119152416 41 275 0.0 6.0 0.02 0.56 0.12 79 1023.9
20200119152316 40 275 0.0 6.0 0.02 0.56 0.12 79 1023.8
20200119152217 40 271 1.0 6.0 0.02 0.56 0.12 79 1023.8
20200119152115 40 262 1.0 6.0 0.02 0.56 0.12 79 1023.8
20200119152016 40 271 1.0 5.0 0.02 0.57 0.12 79 1023.8
20200119151917 40 241 2.0 5.0 0.02 0.57 0.12 79 1023.8
20200119151820 40 217 1.0 5.0 0.02 0.57 0.12 79 1023.7
20200119151815 40 217 1.0 5.0 0.02 0.57 0.12 79 1023.8
20200119151716 40 268 1.0 5.0 0.02 0.57 0.12 80 1023.8
20200119151616 40 161 1.0 5.0 0.02 0.57 0.12 80 1023.8
20200119151515 40 243 0.0 2.0 0.02 0.57 0.12 80 1023.7
20200119151416 40 219 0.0 2.0 0.02 0.57 0.12 79 1023.7
20200119151320 40 310 1.0 2.0 0.02 0.57 0.12 78 1023.7
20200119151316 40 310 1.0 2.0 0.02 0.57 0.12 78 1023.8
20200119151215 41 310 1.0 2.0 0.02 0.57 0.12 78 1023.8
20200119151116 41 234 1.0 4.0 0.01 0.56 0.11 78 1023.8
20200119151016 41 48 0.0 4.0 0.01 0.56 0.11 78 1023.8
20200119150915 41 251 0.0 5.0 0.01 0.56 0.11 78 1023.9
20200119150815 41 251 0.0 5.0 0.02 0.56 0.11 78 1023.7
20200119150716 41 251 1.0 5.0 0.02 0.56 0.11 77 1023.7
20200119150615 41 223 0.0 5.0 0.02 0.56 0.11 77 1023.8
20200119150515 41 234 0.0 5.0 0.02 0.56 0.11 77 1023.7
20200119150416 41 227 0.0 5.0 0.02 0.56 0.11 78 1023.8
20200119150315 41 227 1.0 5.0 0.02 0.56 0.11 77 1023.7
20200119150217 41 227 1.0 5.0 0.02 0.56 0.11 78 1023.9
20200119150115 41 291 2.0 5.0 0.02 0.56 0.11 78 1023.9
20200119150017 41 234 2.0 5.0 0.02 0.56 0.11 78 1023.7
20200119145916 41 233 1.0 4.0 0.02 0.56 0.11 78 1023.8
20200119145819 41 279 0.0 4.0 0.02 0.56 0.11 78 1023.8
20200119145815 41 277 0.0 4.0 0.02 0.56 0.11 78 1023.6
20200119145717 41 48 0.0 6.0 0.02 0.56 0.11 78 1023.7
20200119145615 41 48 1.0 6.0 0.02 0.56 0.11 78 1023.7
20200119145516 41 48 1.0 6.0 0.02 0.56 0.11 78 1023.7
20200119145415 41 247 0.0 6.0 0.02 0.56 0.11 78 1023.7
20200119145320 41 222 0.0 6.0 0.02 0.56 0.11 78 1023.7
20200119145317 41 317 0.0 6.0 0.02 0.56 0.11 78 1023.7
20200119145215 41 320 0.0 6.0 0.02 0.56 0.11 78 1023.7
20200119145114 41 320 1.0 6.0 0.02 0.56 0.11 79 1023.7
20200119145016 41 162 2.0 6.0 0.02 0.56 0.11 79 1023.7
20200119144916 40 147 3.0 6.0 0.01 0.55 0.11 80 1023.7
20200119144817 40 120 2.0 6.0 0.01 0.55 0.10 80 1023.8
20200119144716 40 219 0.0 3.0 0.01 0.56 0.10 80 1023.8
20200119144615 40 219 1.0 3.0 0.01 0.56 0.10 80 1023.8
20200119144515 40 227 1.0 3.0 0.01 0.56 0.10 80 1023.7
20200119144416 40 241 0.0 3.0 0.01 0.56 0.10 80 1023.8
20200119144316 40 141 0.0 3.0 0.01 0.56 0.10 80 1023.8
20200119144215 40 141 0.0 3.0 0.01 0.56 0.10 80 1023.8
20200119144116 40 141 1.0 3.0 0.01 0.56 0.10 81 1023.8
20200119144015 40 141 1.0 3.0 0.01 0.56 0.10 81 1023.8
20200119143915 39 212 0.0 3.0 0.01 0.56 0.10 81 1023.8
20200119143816 39 253 1.0 3.0 0.01 0.56 0.10 81 1023.7
20200119143714 39 285 1.0 3.0 0.01 0.56 0.10 81 1023.8
20200119143614 39 234 0.0 3.0 0.01 0.56 0.10 81 1023.8
20200119143514 39 230 1.0 3.0 0.02 0.56 0.10 81 1023.8
20200119143414 39 230 1.0 3.0 0.02 0.56 0.10 81 1023.8
20200119143316 39 237 0.0 3.0 0.02 0.56 0.10 82 1023.8
20200119143214 39 236 0.0 3.0 0.02 0.56 0.10 82 1023.8
20200119143115 39 236 0.0 3.0 0.02 0.56 0.10 81 1023.8
20200119143013 39 236 1.0 3.0 0.02 0.56 0.10 81 1023.7
20200119142915 39 248 0.0 3.0 0.02 0.56 0.10 81 1023.8
20200119142815 39 261 1.0 3.0 0.02 0.56 0.10 81 1023.8
20200119142714 39 261 2.0 4.0 0.02 0.56 0.10 81 1023.8
20200119142614 39 245 1.0 4.0 0.02 0.56 0.10 81 1023.8
20200119142514 39 253 0.0 4.0 0.02 0.56 0.10 81 1023.8
20200119142413 39 253 0.0 4.0 0.02 0.56 0.10 81 1023.9
20200119142316 40 253 0.0 4.0 0.02 0.56 0.10 81 1023.8
20200119142213 40 253 0.0 4.0 0.02 0.56 0.10 81 1023.7
20200119142115 39 236 1.0 4.0 0.02 0.56 0.10 80 1023.7
20200119142014 39 231 1.0 4.0 0.02 0.56 0.10 81 1023.8
20200119141915 39 191 1.0 4.0 0.02 0.56 0.10 81 1023.8
20200119141816 39 198 1.0 4.0 0.02 0.56 0.10 81 1023.8
20200119141714 39 178 1.0 4.0 0.02 0.56 0.10 81 1023.7
20200119141615 39 260 1.0 4.0 0.02 0.56 0.10 81 1023.7
20200119141514 39 241 0.0 4.0 0.02 0.56 0.10 82 1023.7
20200119141414 39 241 0.0 4.0 0.02 0.56 0.10 82 1023.7
20200119141315 38 241 0.0 4.0 0.02 0.56 0.10 82 1023.8
20200119141214 38 248 1.0 4.0 0.02 0.56 0.10 84 1023.7
20200119141114 38 223 2.0 4.0 0.02 0.56 0.10 84 1023.6
20200119141014 38 309 0.0 3.0 0.02 0.56 0.10 84 1023.8
20200119140914 38 145 0.0 5.0 0.02 0.56 0.10 84 1023.8
20200119140816 38 145 0.0 5.0 0.01 0.55 0.10 84 1023.7
20200119140713 38 145 0.0 5.0 0.01 0.55 0.09 84 1023.7
20200119140614 38 145 0.0 5.0 0.01 0.55 0.09 84 1023.6
20200119140514 38 145 0.0 5.0 0.01 0.55 0.09 84 1023.7
20200119140414 38 296 0.0 5.0 0.01 0.55 0.09 84 1023.7
20200119140316 38 296 1.0 5.0 0.01 0.55 0.09 84 1023.7
20200119140214 38 244 1.0 5.0 0.01 0.55 0.09 84 1023.7
20200119140114 38 243 2.0 5.0 0.01 0.55 0.09 84 1023.8
20200119140013 38 237 1.0 5.0 0.01 0.56 0.09 84 1023.7
20200119135914 38 247 0.0 3.0 0.01 0.56 0.09 84 1023.7
20200119135815 38 241 0.0 3.0 0.01 0.56 0.09 83 1023.6
20200119135713 38 241 0.0 3.0 0.01 0.56 0.09 83 1023.8
20200119135614 38 241 1.0 3.0 0.01 0.56 0.09 83 1023.8
20200119135514 38 240 2.0 3.0 0.02 0.56 0.09 83 1023.8
20200119135413 38 240 2.0 3.0 0.02 0.56 0.09 83 1023.7
20200119135316 38 222 1.0 3.0 0.02 0.56 0.09 83 1023.7
20200119135213 38 243 0.0 2.0 0.02 0.56 0.09 83 1023.7
20200119135114 38 243 0.0 2.0 0.02 0.56 0.09 83 1023.7
20200119135013 38 243 0.0 2.0 0.02 0.56 0.09 83 1023.7
20200119134913 38 243 0.0 2.0 0.02 0.56 0.09 83 1023.6
20200119134814 38 243 0.0 2.0 0.02 0.56 0.09 83 1023.7
20200119134714 38 162 0.0 2.0 0.02 0.56 0.09 83 1023.7
20200119134613 38 162 0.0 1.0 0.02 0.56 0.09 83 1023.8
20200119134513 38 162 0.0 1.0 0.02 0.56 0.09 83 1023.8
20200119134413 38 162 0.0 1.0 0.02 0.56 0.09 83 1023.8
20200119134314 38 161 0.0 1.0 0.02 0.56 0.09 83 1023.8
20200119134213 38 161 0.0 1.0 0.02 0.56 0.09 83 1023.9
20200119134113 38 161 0.0 1.0 0.02 0.56 0.09 83 1023.9
20200119134013 38 161 0.0 1.0 0.02 0.56 0.09 83 1023.8
20200119133914 38 161 0.0 1.0 0.02 0.56 0.09 83 1023.8
20200119133815 38 161 0.0 2.0 0.02 0.56 0.09 83 1023.9
20200119133713 38 161 0.0 5.0 0.02 0.56 0.09 83 1023.8
20200119133614 38 161 0.0 6.0 0.02 0.56 0.09 82 1023.8
20200119133513 39 161 0.0 6.0 0.01 0.55 0.09 82 1023.9
20200119133414 39 161 0.0 6.0 0.01 0.56 0.08 82 1023.9
20200119133314 39 161 0.0 6.0 0.01 0.56 0.08 82 1023.8
20200119133212 39 161 0.0 6.0 0.01 0.56 0.08 82 1023.8
20200119133113 39 161 0.0 6.0 0.01 0.56 0.08 82 1023.9
20200119133014 39 154 0.0 6.0 0.01 0.56 0.08 82 1023.9
20200119132913 39 154 1.0 6.0 0.01 0.56 0.08 82 1023.9
20200119132815 38 271 2.0 6.0 0.01 0.56 0.08 82 1023.7
20200119132714 38 200 1.0 6.0 0.01 0.56 0.08 82 1023.8
20200119132612 38 222 0.0 4.0 0.01 0.56 0.08 82 1024.0
20200119132513 38 238 0.0 4.0 0.01 0.56 0.08 82 1024.0
20200119132412 38 238 0.0 4.0 0.01 0.56 0.08 82 1023.9
20200119132314 38 238 1.0 4.0 0.01 0.56 0.08 83 1023.9
20200119132213 38 245 1.0 4.0 0.02 0.56 0.08 84 1023.9
20200119132112 38 220 0.0 1.0 0.02 0.56 0.08 84 1024.0
20200119132012 38 220 0.0 1.0 0.02 0.56 0.08 84 1024.0
20200119131913 38 220 0.0 1.0 0.02 0.56 0.08 84 1024.0
20200119131814 38 220 0.0 1.0 0.02 0.56 0.08 84 1024.1
20200119131713 38 220 0.0 1.0 0.02 0.56 0.08 83 1024.1
20200119131613 38 220 0.0 1.0 0.02 0.56 0.08 83 1024.0
20200119131512 38 220 0.0 3.0 0.02 0.56 0.08 83 1024.1
20200119131413 38 220 0.0 3.0 0.02 0.56 0.08 83 1024.0
20200119131314 38 220 0.0 4.0 0.02 0.56 0.08 83 1024.0
20200119131212 38 254 0.0 4.0 0.02 0.56 0.08 83 1024.0
20200119131112 38 254 0.0 4.0 0.02 0.56 0.08 83 1024.1
20200119131012 38 254 0.0 4.0 0.02 0.56 0.08 82 1024.1
20200119130912 38 254 0.0 4.0 0.02 0.56 0.08 82 1024.1
20200119130814 38 254 0.0 4.0 0.02 0.56 0.08 82 1024.1
20200119130713 38 254 1.0 4.0 0.02 0.56 0.08 82 1024.1
20200119130613 38 254 1.0 4.0 0.02 0.56 0.08 82 1024.1
20200119130513 38 233 1.0 4.0 0.02 0.56 0.08 82 1024.1
20200119130411 38 233 1.0 4.0 0.02 0.56 0.08 82 1024.1
20200119130314 38 243 0.0 3.0 0.02 0.56 0.08 82 1024.1
20200119130211 38 274 1.0 3.0 0.02 0.56 0.08 83 1024.1
20200119130112 38 269 1.0 3.0 0.02 0.56 0.08 83 1024.2
20200119130011 38 238 1.0 3.0 0.02 0.56 0.08 83 1024.1
20200119125913 38 238 1.0 3.0 0.02 0.56 0.08 82 1024.1
20200119125813 38 245 0.0 2.0 0.02 0.57 0.08 82 1024.3
20200119125712 38 245 1.0 2.0 0.02 0.57 0.08 82 1024.2
20200119125612 38 245 0.0 2.0 0.02 0.57 0.08 82 1024.2
20200119125512 38 247 0.0 2.0 0.01 0.56 0.07 82 1024.2
20200119125413 38 247 0.0 2.0 0.01 0.56 0.07 82 1024.4
20200119125314 38 248 0.0 2.0 0.01 0.56 0.07 82 1024.2
20200119125212 38 248 0.0 4.0 0.01 0.56 0.07 82 1024.2
20200119125111 38 250 0.0 4.0 0.01 0.56 0.07 83 1024.3
20200119125011 38 254 0.0 4.0 0.01 0.56 0.07 83 1024.2
20200119124913 38 243 0.0 4.0 0.01 0.56 0.07 82 1024.2
20200119124813 38 243 0.0 4.0 0.01 0.56 0.07 82 1024.2
20200119124712 38 244 0.0 4.0 0.01 0.56 0.07 82 1024.3
20200119124613 38 244 0.0 4.0 0.01 0.56 0.07 82 1024.3
20200119124511 38 243 0.0 4.0 0.01 0.56 0.07 82 1024.3
20200119124412 38 243 2.0 4.0 0.01 0.56 0.07 82 1024.3
20200119124313 38 234 2.0 4.0 0.01 0.56 0.07 82 1024.3
20200119124211 38 233 0.0 2.0 0.01 0.56 0.07 82 1024.3
20200119124113 38 231 0.0 1.0 0.01 0.56 0.07 82 1024.3
20200119124012 38 231 0.0 1.0 0.01 0.56 0.07 83 1024.2
20200119123912 38 231 0.0 1.0 0.01 0.56 0.07 83 1024.3
20200119123814 38 224 0.0 1.0 0.01 0.56 0.07 84 1024.3
20200119123711 38 224 0.0 2.0 0.01 0.56 0.07 84 1024.5
20200119123612 38 224 0.0 3.0 0.01 0.56 0.07 84 1024.5
20200119123512 38 224 0.0 3.0 0.01 0.57 0.07 84 1024.4
20200119123412 37 224 0.0 3.0 0.02 0.57 0.07 84 1024.5
20200119123312 37 233 0.0 3.0 0.02 0.57 0.07 84 1024.5
20200119123212 37 233 0.0 3.0 0.02 0.57 0.07 84 1024.4
20200119123112 37 233 0.0 3.0 0.02 0.57 0.07 84 1024.5
20200119123011 37 233 0.0 3.0 0.02 0.57 0.07 84 1024.4
20200119122910 37 233 1.0 3.0 0.02 0.57 0.07 84 1024.4
20200119122813 37 233 1.0 3.0 0.02 0.57 0.07 84 1024.4
20200119122712 37 231 0.0 3.0 0.02 0.57 0.07 84 1024.4
20200119122612 37 248 0.0 1.0 0.02 0.57 0.07 84 1024.4
20200119122512 37 248 0.0 1.0 0.02 0.57 0.07 84 1024.3
20200119122413 37 253 0.0 1.0 0.02 0.57 0.07 84 1024.5
20200119122314 38 253 0.0 1.0 0.02 0.57 0.07 84 1024.5
20200119122211 38 253 0.0 1.0 0.01 0.56 0.06 84 1024.5
20200119122112 38 253 0.0 1.0 0.01 0.56 0.06 84 1024.5
20200119122011 38 253 0.0 1.0 0.01 0.56 0.06 84 1024.4
20200119121911 38 253 0.0 1.0 0.01 0.56 0.06 84 1024.5
20200119121812 38 253 0.0 1.0 0.01 0.56 0.06 84 1024.5
20200119121711 38 253 0.0 1.0 0.01 0.56 0.06 83 1024.5
20200119121612 38 253 0.0 1.0 0.01 0.56 0.06 84 1024.5
20200119121511 38 253 0.0 1.0 0.01 0.56 0.06 84 1024.6
20200119121411 38 253 0.0 1.0 0.01 0.56 0.06 84 1024.6
20200119121316 38 253 0.0 1.0 0.01 0.56 0.06 84 1024.6
20200119121312 38 253 0.0 1.0 0.01 0.56 0.06 84 1024.5
20200119121211 38 253 0.0 1.0 0.01 0.56 0.06 84 1024.5
20200119121112 38 253 0.0 2.0 0.01 0.56 0.06 84 1024.5
20200119121011 38 253 0.0 2.0 0.01 0.56 0.06 84 1024.6
20200119120912 38 253 0.0 2.0 0.01 0.56 0.06 84 1024.6
20200119120812 38 253 0.0 2.0 0.01 0.56 0.06 84 1024.5
20200119120711 37 253 0.0 2.0 0.01 0.56 0.06 84 1024.5
20200119120610 37 253 0.0 2.0 0.01 0.56 0.06 84 1024.5
20200119120511 37 253 0.0 2.0 0.01 0.56 0.06 84 1024.5
20200119120412 37 253 0.0 2.0 0.01 0.56 0.06 84 1024.6
20200119120312 37 253 0.0 2.0 0.01 0.56 0.06 84 1024.5
20200119120210 37 253 1.0 2.0 0.02 0.56 0.06 84 1024.6
20200119120111 37 253 0.0 2.0 0.02 0.56 0.06 85 1024.7
20200119120011 37 253 0.0 1.0 0.02 0.56 0.06 85 1024.7
20200119115911 37 253 0.0 1.0 0.02 0.56 0.06 85 1024.6
20200119115811 37 253 0.0 1.0 0.02 0.56 0.06 85 1024.6
20200119115712 37 253 0.0 1.0 0.02 0.56 0.06 85 1024.6
20200119115611 37 253 0.0 3.0 0.02 0.56 0.06 85 1024.7
20200119115510 37 253 0.0 3.0 0.02 0.56 0.06 85 1024.6
20200119115410 37 253 0.0 3.0 0.02 0.56 0.06 85 1024.7
20200119115313 37 253 0.0 3.0 0.02 0.56 0.06 85 1024.7
20200119115210 37 253 0.0 3.0 0.02 0.56 0.06 85 1024.7
20200119115110 37 253 0.0 3.0 0.02 0.56 0.06 85 1024.7
20200119115011 37 253 0.0 3.0 0.02 0.56 0.06 85 1024.7
20200119114911 37 253 0.0 3.0 0.02 0.56 0.06 85 1024.7
20200119114812 37 253 0.0 3.0 0.02 0.56 0.06 84 1024.7
20200119114711 37 253 0.0 3.0 0.02 0.56 0.06 84 1024.6
20200119114611 38 157 0.0 1.0 0.02 0.56 0.06 84 1024.7
20200119114510 38 157 0.0 1.0 0.02 0.56 0.06 84 1024.7
20200119114411 38 157 0.0 1.0 0.02 0.57 0.06 84 1024.6
20200119114311 38 157 0.0 1.0 0.02 0.57 0.06 84 1024.6
20200119114211 38 157 0.0 1.0 0.02 0.57 0.06 84 1024.7
20200119114110 38 157 0.0 1.0 0.02 0.57 0.06 84 1024.6
20200119114010 38 157 0.0 1.0 0.02 0.57 0.06 84 1024.7
20200119113911 38 157 0.0 1.0 0.02 0.57 0.06 84 1024.6
20200119113812 38 157 0.0 1.0 0.02 0.57 0.06 84 1024.6
20200119113715 38 157 0.0 1.0 0.02 0.57 0.06 84 1024.6
20200119113710 38 157 0.0 1.0 0.02 0.57 0.06 84 1024.6
20200119113510 38 155 0.0 1.0 0.02 0.57 0.06 84 1024.6
20200119113410 38 155 0.0 1.0 0.01 0.56 0.05 84 1024.7
20200119113312 38 155 0.0 1.0 0.01 0.56 0.05 84 1024.7
20200119113211 38 155 0.0 1.0 0.01 0.56 0.05 84 1024.8
20200119113111 38 155 0.0 1.0 0.01 0.56 0.05 84 1024.8
20200119113010 38 155 0.0 3.0 0.01 0.56 0.05 83 1024.7
20200119112911 38 155 0.0 3.0 0.01 0.56 0.05 83 1024.8
20200119112812 38 151 0.0 3.0 0.01 0.56 0.05 83 1024.8
20200119112710 38 148 0.0 3.0 0.01 0.56 0.05 83 1024.8
20200119112609 38 148 0.0 3.0 0.01 0.56 0.05 83 1024.7
20200119112511 38 148 0.0 3.0 0.01 0.56 0.05 83 1024.8
20200119112411 38 148 0.0 3.0 0.01 0.56 0.05 83 1024.8
20200119112311 38 148 0.0 3.0 0.01 0.56 0.05 83 1024.7
20200119112210 38 148 0.0 3.0 0.01 0.56 0.05 83 1024.7
20200119112110 38 148 1.0 3.0 0.01 0.56 0.05 82 1024.7
20200119112010 38 214 1.0 3.0 0.01 0.56 0.05 82 1024.6
20200119111910 38 220 1.0 3.0 0.01 0.56 0.05 83 1024.6
20200119111812 38 213 0.0 2.0 0.01 0.56 0.05 84 1024.6
20200119111709 38 346 0.0 2.0 0.01 0.56 0.05 84 1024.5
20200119111610 38 347 1.0 2.0 0.02 0.56 0.05 84 1024.7
20200119111510 38 347 0.0 2.0 0.02 0.56 0.05 84 1024.7
20200119111410 38 227 0.0 0.0 0.02 0.56 0.05 84 1024.7
20200119111311 38 227 0.0 1.0 0.02 0.56 0.05 83 1024.7
20200119111209 38 227 0.0 1.0 0.02 0.56 0.05 83 1024.7
20200119111110 38 227 0.0 1.0 0.02 0.57 0.05 83 1024.8
20200119111009 38 227 0.0 1.0 0.02 0.57 0.05 83 1024.8
20200119110908 38 227 0.0 1.0 0.02 0.57 0.05 82 1024.8
20200119110812 38 227 0.0 2.0 0.02 0.57 0.05 82 1024.7
20200119110710 38 227 0.0 2.0 0.02 0.57 0.05 82 1024.7
20200119110610 38 227 0.0 3.0 0.02 0.57 0.05 82 1024.8
20200119110509 38 227 0.0 3.0 0.02 0.57 0.05 82 1024.8
20200119110408 38 227 0.0 3.0 0.02 0.57 0.05 81 1024.8
20200119110311 38 227 0.0 3.0 0.02 0.57 0.05 81 1024.8
20200119110209 39 227 0.0 3.0 0.01 0.56 0.04 81 1024.7
20200119110109 39 227 0.0 3.0 0.01 0.56 0.04 81 1024.7
20200119110009 39 227 0.0 3.0 0.01 0.56 0.04 80 1024.6
20200119105908 39 224 0.0 3.0 0.01 0.56 0.04 80 1024.7
20200119105813 39 223 0.0 3.0 0.01 0.56 0.04 80 1024.7
20200119105809 39 120 0.0 3.0 0.01 0.56 0.04 80 1024.7
20200119105709 39 120 0.0 7.0 0.01 0.56 0.04 81 1024.7
20200119105610 39 124 0.0 7.0 0.01 0.56 0.04 81 1024.7
20200119105509 39 124 0.0 7.0 0.01 0.56 0.04 81 1024.7
20200119105410 39 124 0.0 7.0 0.01 0.56 0.04 81 1024.7
20200119105309 39 124 0.0 7.0 0.01 0.56 0.04 81 1024.7
20200119105208 39 124 0.0 7.0 0.01 0.56 0.04 80 1024.6
20200119105109 38 124 0.0 7.0 0.01 0.56 0.04 80 1024.6
20200119105009 38 124 0.0 7.0 0.01 0.56 0.04 81 1024.6
20200119104911 38 123 2.0 7.0 0.01 0.56 0.04 83 1024.6
20200119104709 37 234 0.0 3.0 0.01 0.56 0.04 84 1024.8
20200119104608 37 186 0.0 3.0 0.01 0.56 0.04 84 1024.7
20200119104508 37 231 0.0 3.0 0.01 0.56 0.04 84 1024.7
20200119104409 37 231 0.0 3.0 0.02 0.56 0.04 84 1024.7
20200119104314 37 231 0.0 3.0 0.02 0.56 0.04 84 1024.8
20200119104310 37 231 0.0 3.0 0.02 0.56 0.04 84 1024.6
20200119104209 37 231 1.0 3.0 0.02 0.56 0.04 84 1024.6
20200119104109 37 231 1.0 3.0 0.02 0.56 0.04 84 1024.7
20200119104010 37 240 0.0 2.0 0.02 0.56 0.04 84 1024.8
20200119103908 37 240 0.0 0.0 0.02 0.56 0.04 84 1024.8
20200119103810 37 240 0.0 0.0 0.02 0.56 0.04 84 1024.8
20200119103710 37 240 0.0 0.0 0.02 0.56 0.04 84 1024.8
20200119103609 37 240 0.0 0.0 0.02 0.56 0.04 84 1024.7
20200119103508 37 240 0.0 0.0 0.02 0.56 0.04 84 1024.8
20200119103410 38 240 0.0 0.0 0.02 0.56 0.04 84 1024.8
20200119103309 38 240 0.0 0.0 0.02 0.56 0.04 84 1024.8
20200119103209 38 240 0.0 0.0 0.02 0.56 0.04 83 1024.8
20200119103109 38 240 0.0 0.0 0.02 0.56 0.04 83 1024.8
20200119103008 38 240 0.0 0.0 0.02 0.56 0.04 83 1024.7
20200119102909 38 248 0.0 0.0 0.02 0.56 0.04 83 1024.8
20200119102810 38 248 0.0 1.0 0.02 0.56 0.04 83 1024.8
20200119102708 38 248 0.0 1.0 0.02 0.56 0.04 83 1024.7
20200119102608 37 248 0.0 1.0 0.02 0.56 0.04 84 1024.7
20200119102509 37 248 0.0 1.0 0.02 0.56 0.04 84 1024.7
20200119102407 37 248 0.0 1.0 0.02 0.56 0.04 84 1024.7
20200119102309 37 248 0.0 1.0 0.02 0.56 0.04 84 1024.8
20200119102209 37 248 0.0 1.0 0.02 0.56 0.04 84 1024.8
20200119102108 37 248 0.0 1.0 0.02 0.56 0.04 84 1024.7
20200119102009 37 248 0.0 1.0 0.02 0.56 0.04 85 1024.7
20200119101909 37 248 0.0 1.0 0.02 0.56 0.04 85 1024.7
20200119101810 37 248 0.0 2.0 0.02 0.56 0.04 85 1024.7
20200119101708 37 248 0.0 2.0 0.02 0.56 0.04 85 1024.7
20200119101608 37 248 0.0 2.0 0.01 0.55 0.04 85 1024.8
20200119101508 37 248 0.0 2.0 0.01 0.55 0.03 85 1024.8
20200119101409 37 248 0.0 2.0 0.01 0.55 0.03 85 1024.8
20200119101309 37 248 0.0 2.0 0.01 0.55 0.03 85 1024.8
20200119101208 37 248 0.0 2.0 0.01 0.55 0.03 85 1024.8
20200119101109 37 248 0.0 2.0 0.01 0.55 0.03 85 1024.8
20200119101008 37 248 0.0 2.0 0.01 0.55 0.03 85 1024.8
20200119100908 37 248 0.0 2.0 0.01 0.55 0.03 85 1024.8
20200119100811 37 250 0.0 2.0 0.01 0.55 0.03 85 1024.8
20200119100708 37 250 0.0 2.0 0.01 0.55 0.03 85 1024.8
20200119100607 37 250 0.0 2.0 0.01 0.55 0.03 85 1024.9
20200119100507 37 250 0.0 2.0 0.01 0.55 0.03 85 1024.8
20200119100408 37 250 0.0 3.0 0.01 0.55 0.03 85 1024.8
20200119100310 37 250 0.0 3.0 0.01 0.55 0.03 85 1024.8
20200119100209 37 257 0.0 3.0 0.01 0.55 0.03 85 1024.8
20200119100107 37 257 0.0 3.0 0.01 0.55 0.03 85 1024.8
20200119100008 37 257 0.0 3.0 0.01 0.55 0.03 86 1024.8
20200119095908 37 257 1.0 3.0 0.01 0.55 0.03 86 1024.8
20200119095814 37 251 0.0 3.0 0.01 0.55 0.03 86 1024.9
20200119095810 37 251 0.0 3.0 0.01 0.55 0.03 86 1024.8
20200119095707 37 250 0.0 3.0 0.01 0.55 0.03 86 1024.8
20200119095608 37 250 1.0 3.0 0.02 0.56 0.03 86 1024.8
20200119095509 37 251 2.0 3.0 0.02 0.56 0.03 86 1024.8
20200119095407 37 238 0.0 2.0 0.02 0.56 0.03 86 1024.8
20200119095310 37 253 0.0 1.0 0.02 0.56 0.03 86 1024.8
20200119095208 37 253 0.0 1.0 0.02 0.56 0.03 87 1024.8
20200119095107 37 253 0.0 1.0 0.02 0.56 0.03 87 1024.8
20200119095007 37 253 0.0 1.0 0.02 0.56 0.03 86 1024.8
20200119094907 37 253 0.0 1.0 0.02 0.56 0.03 86 1024.9
20200119094809 37 244 0.0 1.0 0.02 0.56 0.03 86 1024.9
20200119094708 37 244 0.0 1.0 0.02 0.56 0.03 86 1024.8
20200119094607 37 244 0.0 0.0 0.02 0.56 0.03 86 1024.8
20200119094506 37 244 0.0 0.0 0.02 0.56 0.03 86 1024.8
20200119094407 37 244 0.0 0.0 0.01 0.55 0.03 86 1024.8
20200119094308 37 244 0.0 0.0 0.01 0.55 0.02 86 1024.8
20200119094207 37 244 0.0 0.0 0.01 0.55 0.02 86 1024.8
20200119094108 37 244 0.0 0.0 0.01 0.55 0.02 86 1024.9
20200119094007 37 244 0.0 0.0 0.01 0.55 0.02 86 1024.7
20200119093907 37 244 0.0 0.0 0.01 0.55 0.02 86 1024.8
20200119093808 37 244 0.0 0.0 0.01 0.55 0.02 86 1024.8
20200119093707 37 244 0.0 0.0 0.01 0.55 0.02 86 1024.8
20200119093607 37 244 0.0 1.0 0.01 0.55 0.02 86 1024.8
20200119093507 37 244 0.0 2.0 0.01 0.55 0.02 86 1024.8
20200119093408 37 244 0.0 2.0 0.01 0.55 0.02 86 1024.8
20200119093312 37 244 0.0 2.0 0.01 0.55 0.02 86 1024.8
20200119093308 37 244 0.0 2.0 0.01 0.55 0.02 86 1024.9
20200119093208 37 244 0.0 2.0 0.01 0.55 0.02 86 1024.8
20200119093106 37 244 0.0 2.0 0.01 0.55 0.02 86 1024.8
20200119093008 37 244 0.0 2.0 0.01 0.55 0.02 86 1024.8
20200119092907 37 244 0.0 2.0 0.01 0.55 0.02 86 1024.8
20200119092807 37 243 0.0 2.0 0.01 0.55 0.02 86 1024.8
20200119092708 37 241 0.0 3.0 0.01 0.55 0.02 86 1024.8
20200119092607 37 241 0.0 4.0 0.02 0.55 0.02 85 1024.8
20200119092507 37 241 0.0 4.0 0.02 0.55 0.02 85 1024.8
20200119092407 37 241 0.0 4.0 0.02 0.55 0.02 86 1024.8
20200119092309 37 241 0.0 4.0 0.02 0.55 0.02 85 1024.8
20200119092207 37 241 0.0 4.0 0.02 0.55 0.02 85 1024.8
20200119092106 37 241 0.0 4.0 0.02 0.55 0.02 85 1024.8
20200119092007 37 241 0.0 4.0 0.02 0.55 0.02 86 1024.8
20200119091907 37 241 1.0 4.0 0.02 0.55 0.02 86 1024.8
20200119091807 37 231 2.0 4.0 0.02 0.55 0.02 86 1024.8
20200119091714 37 199 1.0 4.0 0.02 0.55 0.02 86 1024.9
20200119091607 37 244 0.0 2.0 0.02 0.55 0.02 86 1024.9
20200119091518 37 243 0.0 2.0 0.02 0.55 0.02 86 1024.9
20200119091407 37 243 0.0 2.0 0.02 0.55 0.02 86 1024.9
20200119091313 37 243 0.0 2.0 0.02 0.55 0.02 86 1025.0
20200119091309 37 243 0.0 2.0 0.02 0.55 0.02 86 1024.9
20200119091207 37 243 0.0 2.0 0.02 0.55 0.02 85 1024.9
20200119091107 37 243 0.0 2.0 0.02 0.55 0.02 85 1024.9
20200119091007 37 244 0.0 1.0 0.02 0.55 0.02 85 1024.9
20200119090907 37 244 0.0 1.0 0.02 0.55 0.02 85 1024.8
20200119090807 37 244 0.0 1.0 0.02 0.55 0.02 85 1024.9
20200119090706 37 244 0.0 1.0 0.02 0.55 0.02 85 1024.9
20200119090608 38 244 0.0 1.0 0.02 0.55 0.02 84 1025.0
20200119090506 38 244 0.0 3.0 0.02 0.55 0.02 84 1024.9
20200119090407 38 244 0.0 3.0 0.02 0.55 0.02 84 1024.9
20200119090308 38 244 0.0 3.0 0.02 0.55 0.02 84 1024.9
20200119090206 38 244 0.0 3.0 0.02 0.55 0.02 84 1025.1
20200119090107 38 244 0.0 4.0 0.02 0.55 0.02 84 1025.0
20200119090006 38 244 0.0 4.0 0.02 0.55 0.02 83 1025.0
20200119085906 38 244 0.0 4.0 0.02 0.55 0.02 83 1025.0
20200119085808 38 244 0.0 4.0 0.02 0.55 0.02 83 1025.0
20200119085706 38 244 0.0 4.0 0.02 0.55 0.02 83 1025.0
20200119085606 38 244 1.0 4.0 0.01 0.54 0.01 83 1025.0
20200119085506 38 236 1.0 4.0 0.01 0.54 0.01 83 1025.0
20200119085406 38 217 1.0 4.0 0.01 0.54 0.01 83 1025.1
20200119085307 38 206 1.0 4.0 0.01 0.55 0.01 83 1025.1
20200119085207 37 250 1.0 4.0 0.01 0.55 0.01 85 1025.1
20200119085107 37 210 0.0 4.0 0.01 0.55 0.01 85 1025.2
20200119085006 37 159 0.0 3.0 0.01 0.55 0.01 85 1025.2
20200119084907 37 159 0.0 3.0 0.01 0.55 0.01 85 1025.2
20200119084808 37 159 0.0 3.0 0.01 0.55 0.01 85 1025.2
20200119084706 37 159 0.0 3.0 0.01 0.55 0.01 85 1025.2
20200119084605 37 159 0.0 3.0 0.02 0.55 0.01 85 1025.2
20200119084506 37 159 0.0 3.0 0.02 0.55 0.01 85 1025.2
20200119084407 37 159 0.0 3.0 0.02 0.55 0.01 85 1025.2
20200119084308 37 159 0.0 3.0 0.02 0.55 0.01 85 1025.3
20200119084207 37 159 1.0 3.0 0.02 0.55 0.01 84 1025.2
20200119084106 38 257 1.0 3.0 0.02 0.55 0.01 84 1025.2
20200119084007 38 205 0.0 3.0 0.02 0.55 0.01 84 1025.3
20200119083906 38 202 0.0 3.0 0.02 0.55 0.01 84 1025.3
20200119083807 38 202 0.0 3.0 0.02 0.55 0.01 84 1025.3
20200119083706 38 202 0.0 3.0 0.02 0.55 0.01 84 1025.2
20200119083605 38 202 0.0 3.0 0.02 0.55 0.01 84 1025.2
20200119083506 38 202 0.0 3.0 0.02 0.55 0.01 84 1025.2
20200119083406 38 200 1.0 3.0 0.02 0.55 0.01 84 1025.2
20200119083307 37 200 1.0 3.0 0.02 0.55 0.01 84 1025.2
20200119083207 38 224 0.0 1.0 0.02 0.55 0.01 84 1025.2
20200119083107 38 224 0.0 1.0 0.02 0.55 0.01 84 1025.2
20200119083006 38 224 0.0 1.0 0.02 0.55 0.01 84 1025.2
20200119082906 38 224 0.0 3.0 0.02 0.55 0.01 84 1025.2
20200119082808 38 224 0.0 3.0 0.02 0.55 0.01 84 1025.1
20200119082705 38 224 0.0 4.0 0.02 0.55 0.01 84 1025.1
20200119082605 38 222 0.0 4.0 0.01 0.54 0.00 84 1025.2
20200119082510 38 222 0.0 4.0 0.01 0.54 0.00 84 1025.2
20200119082406 37 222 0.0 4.0 0.01 0.54 0.00 84 1025.1
20200119082307 37 222 0.0 4.0 0.01 0.54 0.00 84 1025.2
20200119082205 37 222 0.0 4.0 0.01 0.54 0.00 85 1025.2
20200119082105 37 222 1.0 4.0 0.02 0.54 0.00 85 1025.2
20200119082005 37 222 1.0 4.0 0.02 0.54 0.00 86 1025.2
20200119081904 37 230 1.0 4.0 0.02 0.54 0.00 86 1025.1
20200119081808 37 230 1.0 4.0 0.02 0.54 0.00 86 1025.1
20200119081705 37 245 0.0 2.0 0.02 0.54 0.00 86 1025.1
20200119081604 37 248 0.0 2.0 0.02 0.54 0.00 86 1025.2
20200119081505 37 248 0.0 2.0 0.02 0.54 0.00 86 1025.2
20200119081406 37 244 0.0 2.0 0.02 0.54 0.00 86 1025.2
20200119081307 37 244 0.0 2.0 0.02 0.54 0.00 86 1025.2
20200119081205 37 244 0.0 2.0 0.02 0.54 0.00 86 1025.1
20200119081106 37 243 0.0 2.0 0.02 0.54 0.00 85 1025.1
20200119081005 37 243 0.0 2.0 0.02 0.54 0.00 85 1025.1
20200119080904 37 240 1.0 2.0 0.02 0.54 0.00 85 1025.1
20200119080806 37 241 1.0 2.0 0.02 0.54 0.00 85 1025.1
20200119080705 37 251 0.0 2.0 0.02 0.54 0.00 85 1025.1
20200119080605 37 251 0.0 1.0 0.02 0.54 0.00 85 1025.1
20200119080505 37 251 0.0 1.0 0.02 0.54 0.00 85 1025.2
20200119080406 37 251 0.0 1.0 0.02 0.54 0.00 85 1025.1
20200119080306 37 251 0.0 1.0 0.02 0.54 0.00 85 1025.1
20200119080204 37 244 0.0 3.0 0.02 0.54 0.00 85 1025.0
20200119080105 37 244 0.0 3.0 0.02 0.54 0.00 85 1025.0
20200119080004 37 244 0.0 3.0 0.02 0.54 0.00 85 1025.1
20200119075904 37 244 0.0 3.0 0.02 0.54 0.54 85 1025.1
20200119075806 37 244 0.0 3.0 0.02 0.54 0.54 85 1025.1
20200119075706 37 244 0.0 3.0 0.02 0.54 0.54 85 1025.1
20200119075605 37 244 0.0 3.0 0.02 0.54 0.54 85 1025.0
20200119075504 37 244 0.0 3.0 0.02 0.54 0.54 85 1025.0
20200119075405 37 244 0.0 3.0 0.02 0.54 0.54 85 1025.1
20200119075306 37 244 0.0 3.0 0.02 0.54 0.54 85 1025.0
20200119075204 37 217 0.0 2.0 0.02 0.54 0.54 85 1025.1
20200119075104 37 216 0.0 2.0 0.02 0.54 0.54 85 1025.0
20200119075006 37 216 0.0 2.0 0.02 0.54 0.54 84 1025.0
20200119074904 37 216 0.0 2.0 0.02 0.54 0.54 85 1025.0
20200119074807 37 216 0.0 2.0 0.02 0.54 0.54 85 1025.0
20200119074704 37 216 0.0 2.0 0.02 0.54 0.54 85 1025.0
20200119074605 37 120 0.0 2.0 0.01 0.53 0.53 85 1025.0
20200119074503 37 231 0.0 1.0 0.01 0.53 0.53 85 1024.9
20200119074404 37 231 0.0 1.0 0.01 0.53 0.53 85 1025.0
20200119074307 37 231 0.0 1.0 0.01 0.53 0.53 85 1025.0
20200119074204 37 231 0.0 2.0 0.01 0.53 0.53 85 1025.0
20200119074104 37 231 0.0 2.0 0.02 0.53 0.53 85 1025.0
20200119074004 38 231 0.0 2.0 0.02 0.53 0.53 84 1025.0
20200119073905 38 231 0.0 2.0 0.02 0.53 0.53 84 1025.0
20200119073804 38 231 0.0 2.0 0.02 0.53 0.53 84 1025.1
20200119073704 38 231 0.0 2.0 0.02 0.53 0.53 84 1025.1
20200119073604 38 231 0.0 2.0 0.02 0.53 0.53 84 1025.0
20200119073505 38 231 0.0 2.0 0.02 0.53 0.53 84 1025.0
20200119073403 38 231 0.0 2.0 0.02 0.53 0.53 84 1025.0
20200119073307 38 231 0.0 2.0 0.02 0.53 0.53 84 1025.0
20200119073204 38 206 0.0 1.0 0.02 0.53 0.53 84 1025.1
20200119073106 38 206 0.0 1.0 0.02 0.53 0.53 84 1025.0
20200119073004 38 206 0.0 1.0 0.02 0.53 0.53 84 1025.0
20200119072905 38 206 0.0 1.0 0.02 0.53 0.53 84 1025.1
20200119072805 38 206 0.0 2.0 0.02 0.53 0.53 84 1025.1
20200119072705 38 206 0.0 2.0 0.02 0.53 0.53 84 1025.0
20200119072605 38 206 0.0 2.0 0.02 0.53 0.53 84 1025.0
20200119072505 38 206 0.0 2.0 0.02 0.53 0.53 84 1025.1
20200119072405 38 206 0.0 2.0 0.02 0.53 0.53 84 1025.0
20200119072306 38 206 0.0 2.0 0.02 0.53 0.53 84 1025.0
20200119072204 38 206 0.0 2.0 0.02 0.53 0.53 84 1025.1
20200119072105 38 206 0.0 2.0 0.01 0.52 0.52 84 1025.0
20200119072004 38 206 0.0 2.0 0.01 0.52 0.52 85 1025.0
20200119071903 37 206 0.0 2.0 0.01 0.52 0.52 85 1025.0
20200119071806 37 199 0.0 1.0 0.01 0.52 0.52 85 1025.0
20200119071704 37 193 0.0 1.0 0.01 0.52 0.52 86 1025.1
20200119071604 37 193 0.0 1.0 0.01 0.52 0.52 86 1025.1
20200119071504 37 193 0.0 2.0 0.01 0.52 0.52 86 1025.1
20200119071404 37 193 0.0 2.0 0.01 0.52 0.52 86 1025.1
20200119071306 37 193 0.0 2.0 0.01 0.52 0.52 86 1025.1
20200119071206 37 192 0.0 2.0 0.02 0.52 0.52 86 1025.2
20200119071104 37 192 0.0 2.0 0.02 0.52 0.52 86 1025.1
20200119071003 37 192 0.0 4.0 0.02 0.52 0.52 86 1025.1
20200119070904 37 192 0.0 4.0 0.02 0.52 0.52 85 1025.1
20200119070805 37 192 0.0 11.0 0.02 0.52 0.52 85 1025.1
20200119070704 37 192 1.0 11.0 0.02 0.52 0.52 85 1025.1
20200119070604 37 192 1.0 11.0 0.02 0.52 0.52 85 1025.1
20200119070503 37 158 0.0 11.0 0.02 0.52 0.52 86 1025.1
20200119070404 37 154 0.0 11.0 0.02 0.52 0.52 86 1025.1
20200119070306 37 154 0.0 11.0 0.02 0.52 0.52 86 1025.1
20200119070202 37 148 1.0 11.0 0.02 0.52 0.52 86 1025.1
20200119070104 37 148 1.0 11.0 0.02 0.52 0.52 87 1025.0
20200119070003 37 158 2.0 11.0 0.02 0.52 0.52 88 1025.0
20200119065903 37 214 1.0 11.0 0.02 0.52 0.52 88 1025.0
20200119065805 36 267 0.0 5.0 0.02 0.52 0.52 88 1025.0
20200119065703 36 267 1.0 5.0 0.02 0.52 0.52 88 1025.1
20200119065603 36 267 1.0 5.0 0.02 0.52 0.52 88 1025.0
20200119065503 36 247 0.0 1.0 0.02 0.52 0.52 88 1025.1
20200119065403 36 237 0.0 1.0 0.02 0.52 0.52 88 1025.1
20200119065305 36 237 0.0 1.0 0.02 0.52 0.52 88 1025.1
20200119065205 36 237 0.0 1.0 0.02 0.52 0.52 88 1025.1
20200119065104 36 237 0.0 1.0 0.02 0.52 0.52 88 1025.0
20200119065003 36 237 0.0 2.0 0.02 0.52 0.52 88 1025.1
20200119064903 36 236 0.0 4.0 0.02 0.52 0.52 88 1025.1
20200119064804 36 236 0.0 4.0 0.02 0.52 0.52 88 1025.0
20200119064709 36 236 0.0 4.0 0.02 0.52 0.52 88 1025.1
20200119064603 36 236 0.0 4.0 0.02 0.52 0.52 88 1025.1
20200119064503 36 236 0.0 4.0 0.02 0.52 0.52 88 1025.1
20200119064403 36 236 0.0 4.0 0.02 0.52 0.52 88 1025.1
20200119064304 36 236 0.0 4.0 0.02 0.52 0.52 88 1025.0
20200119064203 36 236 0.0 4.0 0.02 0.52 0.52 87 1025.0
20200119064104 36 236 2.0 4.0 0.01 0.51 0.51 87 1025.0
20200119064002 37 236 1.0 4.0 0.01 0.51 0.51 87 1025.0
20200119063903 37 245 0.0 1.0 0.01 0.52 0.51 87 1025.0
20200119063804 37 245 0.0 1.0 0.01 0.52 0.51 87 1025.1
20200119063703 37 245 0.0 1.0 0.01 0.52 0.51 87 1025.1
20200119063603 37 245 0.0 1.0 0.01 0.52 0.51 87 1025.0
20200119063503 37 245 0.0 2.0 0.01 0.52 0.51 87 1025.0
20200119063404 37 245 0.0 3.0 0.01 0.52 0.51 87 1025.0
20200119063304 37 245 0.0 3.0 0.01 0.52 0.51 87 1025.0
20200119063203 37 244 0.0 3.0 0.01 0.52 0.51 87 1025.0
20200119063103 37 244 0.0 3.0 0.02 0.52 0.51 87 1025.0
20200119063003 37 244 0.0 3.0 0.02 0.52 0.51 87 1024.9
20200119062903 37 244 0.0 3.0 0.02 0.52 0.51 87 1024.9
20200119062812 37 238 0.0 3.0 0.02 0.52 0.51 87 1025.0
20200119062705 37 238 0.0 3.0 0.02 0.52 0.51 86 1025.0
20200119062623 37 238 1.0 3.0 0.02 0.52 0.51 86 1025.2
20200119062504 37 236 2.0 3.0 0.02 0.52 0.51 86 1025.0
20200119062402 37 233 1.0 3.0 0.02 0.52 0.51 86 1025.0
20200119062304 37 231 0.0 2.0 0.02 0.52 0.51 86 1025.0
20200119062202 37 231 0.0 2.0 0.02 0.52 0.51 86 1025.0
20200119062102 37 231 0.0 2.0 0.02 0.52 0.51 86 1025.1
20200119062002 37 231 0.0 2.0 0.02 0.52 0.51 86 1025.1
20200119061903 37 231 0.0 2.0 0.02 0.52 0.51 86 1025.0
20200119061804 37 231 0.0 2.0 0.02 0.52 0.51 86 1025.0
20200119061702 37 231 0.0 2.0 0.02 0.52 0.51 86 1025.0
20200119061603 37 231 0.0 2.0 0.02 0.52 0.51 86 1025.0
20200119061502 37 231 0.0 2.0 0.02 0.52 0.51 86 1025.0
20200119061401 37 231 0.0 2.0 0.02 0.52 0.51 85 1024.9
20200119061304 37 231 0.0 2.0 0.02 0.52 0.51 85 1024.9
20200119061202 37 229 0.0 2.0 0.01 0.51 0.51 86 1025.0
20200119061103 37 229 1.0 2.0 0.01 0.51 0.50 86 1025.0
20200119061002 37 234 1.0 2.0 0.01 0.51 0.50 86 1024.9
20200119060903 37 222 0.0 2.0 0.01 0.51 0.50 86 1025.0
20200119060804 37 223 0.0 1.0 0.01 0.51 0.50 86 1025.0
20200119060702 37 222 0.0 1.0 0.01 0.51 0.50 86 1024.9
20200119060602 37 222 0.0 1.0 0.02 0.51 0.50 86 1024.9
20200119060502 37 222 0.0 1.0 0.02 0.51 0.50 86 1025.0
20200119060403 37 222 0.0 1.0 0.02 0.51 0.50 86 1025.0
20200119060303 37 222 0.0 1.0 0.02 0.51 0.50 86 1025.1
20200119060203 37 222 0.0 1.0 0.02 0.51 0.50 86 1025.0
20200119060102 37 222 0.0 1.0 0.02 0.51 0.50 86 1025.0
20200119060002 37 222 0.0 1.0 0.02 0.51 0.50 86 1025.0
20200119055903 37 222 0.0 2.0 0.02 0.51 0.50 86 1025.0
20200119055803 37 222 0.0 2.0 0.02 0.51 0.50 85 1025.0
20200119055701 37 222 0.0 2.0 0.02 0.51 0.50 85 1025.0
20200119055602 37 222 0.0 2.0 0.02 0.51 0.50 85 1025.0
20200119055501 37 222 0.0 2.0 0.02 0.51 0.50 85 1025.0
20200119055402 37 222 0.0 3.0 0.02 0.51 0.50 85 1025.0
20200119055302 37 222 0.0 3.0 0.02 0.51 0.50 85 1025.0
20200119055202 37 222 0.0 3.0 0.02 0.51 0.50 85 1025.0
20200119055101 37 222 1.0 3.0 0.02 0.51 0.50 85 1025.0
20200119055003 37 217 0.0 3.0 0.02 0.51 0.50 85 1025.0
20200119054902 37 217 0.0 3.0 0.02 0.51 0.50 85 1025.0
20200119054803 37 217 0.0 3.0 0.02 0.51 0.50 85 1025.0
20200119054702 37 217 0.0 3.0 0.02 0.51 0.50 85 1025.0
20200119054601 37 217 1.0 3.0 0.02 0.51 0.50 85 1025.0
20200119054502 37 220 1.0 3.0 0.02 0.51 0.50 84 1025.0
20200119054402 37 233 0.0 1.0 0.02 0.51 0.50 84 1025.0
20200119054304 37 233 0.0 1.0 0.02 0.51 0.50 84 1025.0
20200119054201 37 233 0.0 1.0 0.02 0.51 0.50 84 1025.0
20200119054102 37 233 0.0 1.0 0.02 0.51 0.50 84 1025.0
20200119054002 37 233 0.0 1.0 0.02 0.51 0.50 84 1025.0
20200119053902 37 233 0.0 1.0 0.02 0.51 0.50 84 1025.0
20200119053802 37 233 0.0 1.0 0.02 0.51 0.50 84 1025.0
20200119053701 37 233 0.0 0.0 0.02 0.51 0.50 84 1024.9
20200119053602 38 233 0.0 1.0 0.02 0.51 0.50 84 1025.0
20200119053502 38 233 0.0 1.0 0.02 0.51 0.50 84 1025.0
20200119053402 38 233 0.0 1.0 0.02 0.51 0.50 84 1024.9
20200119053303 38 233 0.0 1.0 0.02 0.51 0.50 84 1025.0
20200119053200 38 233 0.0 1.0 0.03 0.51 0.50 85 1024.9
20200119053101 38 233 0.0 1.0 0.02 0.50 0.49 85 1024.9
20200119053000 38 233 0.0 1.0 0.02 0.50 0.49 85 1024.9
20200119052901 38 233 0.0 1.0 0.02 0.50 0.49 84 1024.9
20200119052803 38 233 0.0 1.0 0.02 0.50 0.49 84 1024.9
20200119052700 38 233 0.0 1.0 0.02 0.50 0.49 84 1025.0
20200119052601 38 233 0.0 1.0 0.02 0.50 0.49 85 1025.0
20200119052502 38 233 0.0 1.0 0.02 0.50 0.49 85 1024.9
20200119052402 38 233 0.0 1.0 0.02 0.50 0.49 85 1024.9
20200119052303 38 233 0.0 1.0 0.02 0.50 0.49 84 1025.0
20200119052201 38 233 0.0 1.0 0.02 0.50 0.49 84 1024.9
20200119052101 38 233 0.0 1.0 0.02 0.50 0.49 83 1024.8
20200119052002 38 233 0.0 1.0 0.02 0.50 0.49 83 1024.8
20200119051900 38 233 0.0 1.0 0.02 0.50 0.49 83 1024.8
20200119051803 38 233 0.0 1.0 0.02 0.50 0.49 83 1024.8
20200119051702 38 233 0.0 0.0 0.02 0.50 0.49 82 1024.8
20200119051601 38 233 0.0 0.0 0.02 0.50 0.49 82 1024.8
20200119051501 38 233 0.0 0.0 0.02 0.50 0.49 82 1024.9
20200119051403 38 233 0.0 0.0 0.02 0.50 0.49 82 1024.8
20200119051302 38 233 0.0 0.0 0.02 0.50 0.49 83 1024.9
20200119051202 38 233 0.0 0.0 0.02 0.50 0.49 83 1024.8
20200119051101 38 233 0.0 0.0 0.02 0.50 0.49 83 1024.8
20200119051001 38 233 0.0 0.0 0.02 0.50 0.49 83 1024.8
20200119050901 38 233 0.0 0.0 0.02 0.50 0.49 83 1024.9
20200119050805 38 233 0.0 0.0 0.03 0.50 0.49 83 1024.8
20200119050801 38 233 0.0 0.0 0.03 0.50 0.49 83 1024.8
20200119050701 38 233 0.0 0.0 0.03 0.50 0.49 83 1024.8
20200119050601 38 233 0.0 0.0 0.02 0.49 0.49 83 1024.9
20200119050500 38 233 0.0 2.0 0.02 0.49 0.48 82 1024.9
20200119050402 38 233 0.0 2.0 0.02 0.49 0.48 83 1024.9
20200119050302 38 233 0.0 2.0 0.02 0.49 0.48 83 1024.9
20200119050202 38 233 0.0 2.0 0.02 0.49 0.48 83 1024.8
20200119050102 38 233 0.0 2.0 0.02 0.49 0.48 83 1024.8
20200119050001 38 233 0.0 2.0 0.02 0.49 0.48 83 1024.9
20200119045900 38 233 0.0 2.0 0.02 0.49 0.48 83 1024.8
20200119045802 38 233 0.0 2.0 0.02 0.49 0.48 83 1024.8
20200119045701 38 233 0.0 2.0 0.02 0.49 0.48 83 1024.8
20200119045601 37 233 0.0 3.0 0.02 0.49 0.48 84 1024.9
20200119045501 37 229 0.0 3.0 0.02 0.49 0.48 84 1024.9
20200119045400 37 171 0.0 3.0 0.02 0.49 0.48 85 1024.9
20200119045302 37 171 0.0 3.0 0.02 0.49 0.48 84 1024.9
20200119045200 37 169 0.0 3.0 0.02 0.49 0.48 84 1025.0
20200119045100 37 248 0.0 3.0 0.02 0.49 0.48 84 1024.9
20200119045000 37 248 0.0 3.0 0.02 0.49 0.48 84 1024.9
20200119044900 37 243 0.0 3.0 0.02 0.49 0.48 84 1025.0
20200119044803 37 241 0.0 3.0 0.02 0.49 0.48 84 1025.0
20200119044701 37 241 0.0 3.0 0.02 0.49 0.48 85 1025.0
20200119044601 37 227 0.0 1.0 0.02 0.49 0.48 85 1025.0
20200119044459 37 227 0.0 3.0 0.02 0.49 0.48 85 1025.0
20200119044400 37 226 0.0 3.0 0.02 0.49 0.48 85 1025.0
20200119044302 37 227 0.0 3.0 0.02 0.49 0.48 85 1024.9
20200119044200 37 226 0.0 3.0 0.02 0.49 0.48 86 1024.9
20200119044101 37 226 0.0 3.0 0.02 0.49 0.48 86 1024.9
20200119044000 37 226 0.0 3.0 0.02 0.49 0.48 85 1025.0
20200119043900 37 226 0.0 3.0 0.02 0.49 0.48 85 1025.0
20200119043802 37 227 0.0 3.0 0.02 0.49 0.48 85 1025.1
20200119043700 37 226 1.0 3.0 0.02 0.49 0.48 85 1025.0
20200119043601 37 226 1.0 3.0 0.03 0.49 0.48 85 1025.0
20200119043500 37 241 0.0 2.0 0.03 0.49 0.48 85 1025.0
20200119043359 37 248 0.0 2.0 0.03 0.49 0.48 85 1025.0
20200119043301 37 248 0.0 2.0 0.03 0.49 0.48 85 1024.9
20200119043200 37 248 0.0 2.0 0.02 0.48 0.47 85 1024.9
20200119043100 37 248 0.0 2.0 0.02 0.48 0.47 85 1025.0
20200119043000 37 248 0.0 3.0 0.02 0.48 0.47 85 1025.0
20200119042900 37 248 0.0 3.0 0.02 0.48 0.47 85 1024.9
20200119042802 37 244 0.0 3.0 0.02 0.48 0.47 85 1024.9
20200119042700 37 244 0.0 3.0 0.02 0.48 0.47 85 1024.9
20200119042559 37 244 0.0 3.0 0.02 0.48 0.47 85 1025.0
20200119042500 37 244 0.0 3.0 0.02 0.48 0.47 85 1024.9
20200119042400 37 247 0.0 3.0 0.02 0.48 0.47 85 1024.9
20200119042301 37 253 0.0 3.0 0.02 0.48 0.47 85 1024.9
20200119042200 37 253 1.0 3.0 0.02 0.48 0.47 85 1024.9
20200119042059 37 253 1.0 3.0 0.02 0.48 0.47 85 1024.9
20200119042000 37 247 0.0 2.0 0.02 0.48 0.47 85 1024.9
20200119041900 37 247 0.0 2.0 0.02 0.48 0.47 85 1024.8
20200119041803 37 247 1.0 2.0 0.02 0.48 0.47 85 1024.9
20200119041659 37 247 0.0 2.0 0.02 0.48 0.47 85 1024.8
20200119041600 37 247 0.0 1.0 0.03 0.48 0.47 85 1024.8
20200119041500 37 247 0.0 1.0 0.03 0.48 0.47 85 1024.8
20200119041359 37 247 0.0 1.0 0.03 0.48 0.47 86 1024.8
20200119041301 37 247 0.0 1.0 0.03 0.48 0.47 86 1024.8
20200119041200 37 247 0.0 1.0 0.03 0.48 0.47 86 1024.8
20200119041100 37 247 0.0 2.0 0.03 0.48 0.47 86 1024.8
20200119040959 37 247 0.0 2.0 0.03 0.48 0.47 85 1024.8
20200119040858 37 247 0.0 2.0 0.03 0.48 0.47 85 1024.8
20200119040800 37 247 0.0 2.0 0.02 0.47 0.46 85 1024.8
20200119040659 37 247 0.0 2.0 0.02 0.47 0.46 85 1024.8
20200119040559 37 247 0.0 2.0 0.02 0.47 0.46 85 1024.8
20200119040459 37 247 0.0 2.0 0.02 0.47 0.46 85 1024.7
20200119040400 37 247 0.0 2.0 0.02 0.47 0.46 85 1024.8
20200119040301 37 247 1.0 2.0 0.02 0.47 0.46 84 1024.7
20200119040158 37 247 0.0 2.0 0.02 0.47 0.46 84 1024.8
20200119040058 37 248 0.0 2.0 0.02 0.47 0.46 83 1024.8
20200119035959 37 248 0.0 2.0 0.02 0.47 0.46 83 1024.7
20200119035858 37 248 1.0 2.0 0.02 0.47 0.46 84 1024.7
20200119035800 37 248 1.0 2.0 0.02 0.47 0.46 84 1024.7
20200119035659 37 236 1.0 2.0 0.02 0.47 0.46 84 1024.6
20200119035559 38 241 0.0 2.0 0.02 0.47 0.46 84 1024.6
20200119035458 38 238 0.0 2.0 0.02 0.47 0.46 84 1024.6
20200119035400 38 238 0.0 2.0 0.02 0.47 0.46 84 1024.6
20200119035300 38 238 0.0 2.0 0.02 0.47 0.46 84 1024.6
20200119035200 38 238 0.0 2.0 0.02 0.47 0.46 84 1024.7
20200119035059 38 238 0.0 2.0 0.02 0.47 0.46 84 1024.6
20200119035000 38 238 0.0 2.0 0.02 0.47 0.46 84 1024.6
20200119034859 38 238 0.0 2.0 0.02 0.47 0.46 84 1024.6
20200119034801 38 209 0.0 1.0 0.02 0.47 0.46 84 1024.7
20200119034659 38 241 0.0 0.0 0.02 0.47 0.46 84 1024.7
20200119034559 38 241 0.0 0.0 0.02 0.47 0.46 84 1024.7
20200119034459 38 241 0.0 0.0 0.02 0.47 0.46 84 1024.7
20200119034358 38 241 0.0 0.0 0.03 0.47 0.46 84 1024.7
20200119034259 38 241 0.0 0.0 0.03 0.47 0.46 84 1024.7
20200119034159 38 241 0.0 1.0 0.03 0.47 0.46 84 1024.7
20200119034058 38 241 0.0 1.0 0.03 0.47 0.46 83 1024.7
20200119033957 38 241 0.0 1.0 0.03 0.47 0.46 83 1024.7
20200119033858 38 241 0.0 1.0 0.03 0.47 0.46 82 1024.6
20200119033800 38 241 0.0 1.0 0.03 0.47 0.46 82 1024.6
20200119033659 38 241 0.0 1.0 0.03 0.47 0.46 82 1024.7
20200119033559 38 241 0.0 1.0 0.02 0.46 0.45 82 1024.6
20200119033500 38 241 0.0 1.0 0.02 0.46 0.45 82 1024.6
20200119033359 38 241 0.0 1.0 0.02 0.46 0.45 82 1024.6
20200119033300 39 241 0.0 1.0 0.02 0.46 0.45 81 1024.6
20200119033158 39 241 0.0 1.0 0.02 0.46 0.45 81 1024.5
20200119033059 39 241 0.0 2.0 0.02 0.46 0.45 81 1024.5
20200119032959 39 241 0.0 2.0 0.02 0.46 0.45 81 1024.6
20200119032859 39 241 0.0 2.0 0.02 0.46 0.45 81 1024.5
20200119032800 39 241 0.0 2.0 0.02 0.46 0.45 80 1024.5
20200119032700 39 241 0.0 2.0 0.02 0.46 0.45 80 1024.5
20200119032558 39 241 0.0 2.0 0.02 0.46 0.45 80 1024.4
20200119032458 39 241 0.0 2.0 0.02 0.46 0.45 80 1024.3
20200119032359 39 241 0.0 2.0 0.02 0.46 0.45 79 1024.2
20200119032300 39 241 1.0 2.0 0.02 0.46 0.45 79 1024.2
20200119032157 39 243 0.0 4.0 0.02 0.46 0.45 78 1024.2
20200119032058 39 193 0.0 4.0 0.02 0.46 0.45 79 1024.2
20200119031959 39 172 0.0 4.0 0.02 0.46 0.45 79 1024.3
20200119031859 39 200 0.0 4.0 0.03 0.46 0.45 80 1024.3
20200119031759 39 185 0.0 4.0 0.03 0.46 0.45 79 1024.3
20200119031658 39 185 0.0 4.0 0.03 0.46 0.45 80 1024.4
20200119031557 39 185 0.0 4.0 0.02 0.45 0.45 80 1024.4
20200119031458 38 185 0.0 4.0 0.02 0.45 0.44 80 1024.3
20200119031357 38 185 1.0 4.0 0.02 0.45 0.44 81 1024.3
20200119031259 38 147 1.0 4.0 0.02 0.45 0.44 82 1024.4
20200119031158 38 248 1.0 3.0 0.02 0.45 0.44 82 1024.4
20200119031057 38 271 0.0 3.0 0.02 0.45 0.44 83 1024.3
20200119030958 38 168 0.0 2.0 0.02 0.45 0.44 83 1024.3
20200119030858 38 168 0.0 2.0 0.02 0.45 0.44 83 1024.2
20200119030800 38 168 0.0 2.0 0.02 0.45 0.44 83 1024.3
20200119030658 38 168 1.0 2.0 0.02 0.45 0.44 83 1024.3
20200119030559 37 214 1.0 2.0 0.02 0.45 0.44 83 1024.2
20200119030459 37 236 0.0 1.0 0.02 0.45 0.44 83 1024.2
20200119030359 37 236 0.0 1.0 0.02 0.45 0.44 83 1024.1
20200119030259 37 236 0.0 1.0 0.02 0.45 0.44 84 1024.2
20200119030157 37 236 0.0 1.0 0.02 0.45 0.44 84 1024.1
20200119030058 37 236 0.0 1.0 0.02 0.45 0.44 85 1024.1
20200119025958 37 236 0.0 1.0 0.02 0.46 0.44 86 1024.1
20200119025858 37 236 0.0 1.0 0.02 0.46 0.44 86 1024.1
20200119025800 37 236 0.0 1.0 0.02 0.46 0.44 86 1024.1
20200119025658 37 236 0.0 1.0 0.02 0.46 0.44 85 1024.0
20200119025557 37 236 0.0 1.0 0.02 0.46 0.44 85 1024.1
20200119025457 37 236 0.0 1.0 0.02 0.46 0.44 85 1024.1
20200119025357 37 236 0.0 2.0 0.02 0.46 0.44 85 1024.0
20200119025259 37 236 0.0 2.0 0.02 0.46 0.44 85 1024.0